                ,  0.290,  0.386,  0.483,  0.580,  0.676,  0.773,  0.869,  0.966,  1.063,  1.159,  1.256,  1.352,  1.449,  1.545,  1.642,  1.739,  1.835,  1.932,  2.028,  2.125,  2.222,  2.318,  2.415,  2.511,  2.608,  2.705,  2.801,  2.898,  2.994,  3.091,  3.188,  3.284,  3.381,  3.477,  3.574,  3.671,  3.767,  3.864,  3.960,  4.057,  4.153,  4.250,  4.347,  4.443,  4.540,  4.636,  4.733,  4.830,  4.926,  5.023,  5.119,  5.216,  5.313,  5.409,  5.506,  5.602,  5.699,  5.796
2000/11/09 00:00,  999.0,  999.0,  999.0,    0.1,    6.3,    0.2,  999.0,  999.0,  999.0,  999.0,   13.3,  999.0,  999.0,  999.0,    8.7,  999.0,  999.0,  999.0,  999.0,  999.0,  999.0,  999.0,  999.0,  999.0,  999.0,  999.0,  999.0,  999.0,  999.0,  999.0,  999.0,  999.0,  999.0,  999.0,  999.0,  999.0,  999.0,  999.0,  999.0,  999.0,  999.0,  999.0,  999.0,  999.0,  999.0,  999.0,  999.0,  999.0,  999.0,  999.0,  999.0,  999.0,  999.0,  999.0,  999.0,  999.0,  999.0,  999.0
2000/11/09 00:10,  999.0,  999.0,  999.0,    0.7,    2.1,    3.6,    4.9,  999.0,    6.0,    8.0,    0.9,    0.5,  999.0,   -2.6,   -2.9,  999.0,  999.0,  999.0,  999.0,  999.0,  999.0,  999.0,  999.0,  999.0,  999.0,  999.0,  999.0,  999.0,  999.0,  999.0,  999.0,  999.0,  999.0,  999.0,  999.0,  999.0,  999.0,  999.0,  999.0,  999.0,  999.0,  999.0,  999.0,  999.0,  999.0,  999.0,  999.0,  999.0,  999.0,  999.0,  999.0,  999.0,  999.0,  999.0,  999.0,  999.0,  999.0,  999.0
2000/11/09 00:20,  999.0,  999.0,  999.0,    1.9,    2.8,    3.6,    4.0,    7.7,    4.2,  999.0,  999.0,    5.1,    1.3,  999.0,  999.0,  -22.1,  999.0,  999.0,   -5.9,  999.0,  999.0,  -25.6,  999.0,  999.0,  999.0,  999.0,  999.0,  -32.5,  999.0,  999.0,  999.0,  999.0,  -37.5,  999.0,  999.0,  -41.8,  999.0,  999.0,  999.0,  -41.5,  -41.6,  999.0,  999.0,  999.0,  999.0,  999.0,  999.0,  999.0,  999.0,  999.0,  999.0,  -20.3,  -41.9,  -41.5,  999.0,  999.0,  999.0,  999.0
2000/11/09 00:30,  999.0,  999.0,   -0.2,   -0.5,    1.2,    3.5,    3.3,    2.0,  999.0,  999.0,    4.4,   -0.7,    0.3,    6.2,  999.0,    5.8,  999.0,  999.0,  999.0,   -5.4,  -13.6,  -27.3,  -28.4,  999.0,  999.0,  -31.8,  999.0,  -33.5,  -35.0,  -35.7,  -36.7,  -37.3,  -39.1,  999.0,  -40.0,  -41.5,  -41.5,  -42.2,  -41.4,  -41.1,  -41.5,  999.0,  -41.4,  -42.2,  999.0,  999.0,  -42.3,  -41.3,  999.0,  -41.5,  -41.1,  -41.7,  -42.3,  -41.9,  -41.1,  -41.5,  999.0,  -41.8
2000/11/09 00:40,  999.0,  999.0,  999.0,  999.0,    2.1,    2.0,    3.3,    4.6,   -8.8,    4.6,    5.0,   -2.6,  999.0,  999.0,  999.0,  -17.1,  -20.4,  -24.4,  999.0,  999.0,  -27.1,  -27.9,  999.0,  999.0,  -28.3,  -31.2,  -32.2,  -33.3,  -35.6,  999.0,  999.0,  -37.2,  -38.4,  -39.1,  -40.8,  -42.1,  -42.0,  -41.9,  -42.3,  999.0,  -42.0,  -41.8,  -41.5,  -41.9,  -41.1,  -41.5,  -41.8,  -42.4,  999.0,  -41.8,  -41.5,  -41.8,  -41.2,  -42.2,  -41.5,  -42.3,  999.0,  -41.2
2000/11/09 00:50,  999.0,  999.0,   -3.2,   -0.6,   -0.8,    2.9,   -1.4,    3.3,    1.4,   -1.9,   -4.7,   -3.8,   -0.2,   -2.6,    0.9,    3.7,   -6.8,  999.0,  999.0,    3.1,  999.0,  999.0,  999.0,  999.0,  999.0,  999.0,  -31.9,  999.0,  999.0,  -35.5,  -36.2,  -38.1,  -39.7,  -39.9,  -41.6,  -41.6,  -41.6,  -41.8,  -41.5,  -42.0,  -41.6,  -40.8,  999.0,  -42.0,  -41.9,  -41.7,  -41.7,  -41.1,  -41.4,  -41.3,  999.0,  -41.7,  -41.2,  -41.1,  -41.5,  -41.6,  -41.3,  -41.8
2000/11/09 01:00,  999.0,  999.0,   -1.9,   -1.0,    2.4,    2.4,    0.8,    2.6,    3.9,    3.4,    6.8,  999.0,  999.0,  999.0,    0.6,   -3.8,   -3.1,   -2.8,  999.0,  999.0,  999.0,  999.0,   -5.5,  999.0,  999.0,  999.0,  999.0,  999.0,  999.0,  999.0,  999.0,  999.0,  999.0,  -38.8,  -35.9,  -39.6,  999.0,  -41.6,  -40.8,  999.0,  -42.0,  -42.0,  -41.9,  -42.2,  -41.5,  -41.7,  999.0,  -41.6,  -42.1,  -41.7,  -41.6,  999.0,  999.0,  999.0,  -41.6,  999.0,  999.0,  -41.8
2000/11/09 01:10,  999.0,  999.0,    2.7,   -0.5,    2.8,   -0.0,    5.8,    4.8,  999.0,    2.9,    2.1,    1.2,    1.4,   -2.3,  999.0,  999.0,  999.0,  999.0,  999.0,  999.0,  999.0,  999.0,  999.0,  999.0,  999.0,  999.0,  999.0,  999.0,  999.0,  999.0,  999.0,  999.0,  999.0,  999.0,  -41.9,  -41.7,  -41.8,  -42.1,  -41.4,  999.0,  -41.2,  -41.4,  -41.8,  -41.4,  -41.7,  -41.4,  -41.7,  999.0,  -41.4,  -41.5,  -41.3,  999.0,  -41.2,  -41.8,  -41.5,  -41.6,  -41.2,  -41.5
2000/11/09 01:20,  999.0,  999.0,    5.4,   -0.5,    3.3,    1.4,    1.9,    1.7,    2.0,    2.7,  999.0,  999.0,    4.5,    3.7,    1.8,   -6.7,  999.0,   -5.0,   -6.1,    0.9,  999.0,  999.0,  999.0,  999.0,  999.0,  999.0,  999.0,  999.0,  999.0,  999.0,  -32.2,  999.0,  -34.2,  -36.3,  -36.5,  -38.2,  999.0,  -39.2,  -40.9,  -42.4,  -42.1,  999.0,  -41.9,  -41.2,  -41.8,  -41.8,  999.0,  -41.6,  999.0,  -41.9,  999.0,  -42.1,  999.0,  -41.5,  -42.2,  -41.8,  999.0,  999.0
2000/11/09 01:30,  999.0,  999.0,  999.0,    3.8,    3.9,    3.3,    1.6,    3.3,   -0.3,    0.8,  999.0,  999.0,  999.0,  999.0,   -4.0,  999.0,  999.0,  999.0,    4.1,  999.0,  999.0,  999.0,  999.0,  999.0,  999.0,  999.0,  999.0,  999.0,  999.0,  -30.9,  999.0,  999.0,  -39.5,  999.0,  -41.2,  -41.4,  -40.9,  999.0,  -41.8,  999.0,  -41.8,  -41.6,  999.0,  -41.7,  -42.0,  -41.9,  999.0,  -41.5,  999.0,  -41.9,  999.0,  -42.3,  -42.2,  999.0,  -42.3,  -42.1,  -42.8,  -41.5
2000/11/09 01:40,  999.0,  999.0,    2.1,    2.8,    6.3,    6.6,    2.1,    2.8,  999.0,  999.0,    5.5,  999.0,  999.0,  999.0,  999.0,    1.5,   -4.2,  999.0,   -7.4,  999.0,  999.0,  999.0,  999.0,  999.0,  999.0,  999.0,  999.0,  -32.2,  999.0,  -33.5,  -37.4,  -36.9,  -38.0,  999.0,  -40.3,  -40.8,  -40.9,  -41.9,  -41.6,  -41.4,  -41.9,  -42.3,  999.0,  -41.5,  -41.8,  -42.0,  -42.0,  -42.2,  -42.2,  -41.9,  -41.5,  -42.2,  -41.5,  -41.3,  -42.0,  -40.9,  -41.5,  -41.4
2000/11/09 01:50,  999.0,  999.0,  999.0,  999.0,  999.0,    1.8,    4.9,    5.6,   -5.1,  999.0,  999.0,    2.1,    2.0,  999.0,   -7.1,   -8.4,  999.0,  -13.6,  999.0,  -14.3,  999.0,  999.0,  999.0,  999.0,  999.0,  999.0,  999.0,  999.0,  999.0,  -38.7,  -41.2,  -38.4,  -41.2,  999.0,  -41.8,  -42.0,  999.0,  -42.8,  -41.7,  -42.2,  -41.0,  -41.6,  -41.8,  -41.4,  -41.7,  -41.9,  -42.2,  -41.4,  999.0,  -42.1,  -41.7,  -42.2,  999.0,  999.0,  -41.8,  -40.9,  -41.7,  999.0
2000/11/09 02:00,  999.0,  999.0,  999.0,    1.5,    1.1,    2.8,    1.5,    2.3,    0.1,   -1.5,  999.0,    4.9,  999.0,  999.0,  999.0,   -3.7,   -0.8,   -0.0,  999.0,   -9.0,  -10.0,  -17.4,   -1.2,  999.0,  999.0,  999.0,  999.0,  999.0,  999.0,  999.0,  999.0,  -35.4,  999.0,  -38.1,  -38.5,  -39.8,  -39.2,  -41.2,  -41.7,  999.0,  -42.0,  -41.7,  999.0,  -42.0,  -42.3,  999.0,  -41.8,  -41.7,  -39.7,  -41.4,  -42.2,  -41.4,  -42.1,  -41.5,  -42.0,  -42.3,  999.0,  999.0
2000/11/09 02:10,  999.0,    0.6,    1.6,    1.8,    1.5,    0.8,    1.6,    1.4,    1.3,    3.0,    1.6,  999.0,  999.0,  999.0,   -1.3,    1.2,   -3.4,  999.0,  999.0,   -5.0,   -6.2,  -10.3,  -12.5,  999.0,  999.0,  999.0,  999.0,  999.0,  -32.9,  -36.6,  -36.9,  -37.3,  -38.3,  -39.1,  -40.3,  -40.8,  -41.7,  999.0,  -42.0,  -41.6,  -41.1,  999.0,  -41.5,  999.0,  -41.7,  -41.0,  -42.2,  999.0,  -42.2,  -42.6,  999.0,  -42.2,  999.0,  -41.2,  -41.9,  999.0,  -41.6,  -42.3
2000/11/09 02:20,  999.0,  999.0,  999.0,    0.5,    0.7,    0.2,   -2.3,    0.7,   -7.5,   -5.4,   -5.1,  999.0,   -5.4,   -9.9,  999.0,   -9.1,   -9.6,  999.0,  999.0,  999.0,  999.0,  999.0,  999.0,  999.0,  -29.0,  -29.1,  -29.9,  -30.7,  -32.3,  -33.9,  -34.0,  -34.9,  -35.5,  -36.9,  999.0,  -39.0,  -39.7,  -40.5,  999.0,  -41.8,  -41.6,  -41.9,  999.0,  -41.5,  999.0,  -41.1,  -41.7,  -41.3,  -41.8,  -41.5,  -41.8,  -41.7,  -42.4,  -41.5,  -40.6,  -42.5,  -41.6,  -41.5
2000/11/09 02:30,  999.0,  999.0,  999.0,    0.9,    5.9,  999.0,   -2.9,   -3.2,   -1.5,  999.0,  999.0,  999.0,  999.0,  999.0,  -12.3,  999.0,  -21.0,  999.0,  999.0,  999.0,  999.0,  999.0,  -24.8,  -26.3,  -28.5,  -29.1,  -31.5,  -29.6,  -32.7,  -35.9,  -34.5,  -32.6,  -32.3,  -36.0,  -36.9,  -38.7,  -38.6,  999.0,  -37.5,  -38.8,  -40.0,  -40.6,  -40.2,  -41.3,  999.0,  -40.8,  -41.9,  -41.6,  -41.2,  -41.9,  -40.8,  999.0,  -42.1,  999.0,  -41.2,  -41.4,  -41.5,  -41.9
2000/11/09 02:40,  999.0,  999.0,  999.0,    3.7,  999.0,  999.0,  999.0,    7.0,    2.3,  -13.0,  -10.8,  999.0,   -0.8,  -13.2,   -2.5,  999.0,  999.0,  999.0,  999.0,  -28.0,  999.0,  999.0,  999.0,  999.0,  -33.9,  999.0,  999.0,  999.0,  -37.2,  999.0,  -39.5,  999.0,  -41.1,  999.0,  -42.1,  999.0,  999.0,  -41.6,  -41.7,  999.0,  -42.3,  999.0,  999.0,  999.0,  999.0,  999.0,  999.0,  -41.1,  999.0,  999.0,  -20.2,  999.0,  999.0,  999.0,  999.0,  999.0,  999.0,  -42.1
2000/11/09 02:50,  999.0,  999.0,  999.0,    1.8,    2.5,    1.3,    4.1,    2.2,    0.4,  999.0,  999.0,  999.0,    0.2,    1.8,    1.1,   -2.0,   -6.6,  999.0,  999.0,  999.0,  999.0,  999.0,  999.0,  999.0,  999.0,  999.0,  999.0,  999.0,  999.0,  999.0,  999.0,  999.0,  999.0,  999.0,  999.0,  999.0,  999.0,  999.0,  999.0,  999.0,  999.0,  999.0,  999.0,  999.0,  999.0,  999.0,  999.0,  999.0,  999.0,  999.0,  999.0,  999.0,  999.0,  999.0,  999.0,  999.0,  999.0,  999.0
2000/11/09 03:00,  999.0,  999.0,    2.2,    6.1,    8.7,    3.9,    4.9,    3.2,    2.0,    2.8,  999.0,    0.2,  999.0,  999.0,  999.0,  999.0,  999.0,  999.0,  999.0,  999.0,  999.0,  999.0,  999.0,  999.0,  999.0,  999.0,  999.0,  999.0,  999.0,  999.0,  999.0,  999.0,  999.0,  999.0,  999.0,  999.0,  999.0,  999.0,  999.0,  999.0,  999.0,  999.0,  999.0,  999.0,  999.0,  999.0,  999.0,  999.0,  999.0,  999.0,  999.0,  999.0,  999.0,  999.0,  999.0,  999.0,  999.0,  999.0
2000/11/09 03:10,  999.0,  999.0,  999.0,    1.0,   -0.2,   -5.5,  999.0,    6.7,    4.8,    0.8,   -0.2,    4.5,   -2.2,    7.0,  999.0,  999.0,  999.0,  999.0,  999.0,  999.0,  999.0,  999.0,  999.0,  999.0,  999.0,  999.0,  999.0,  999.0,  999.0,  999.0,  999.0,  999.0,  999.0,  999.0,  999.0,  999.0,  999.0,  999.0,  999.0,  999.0,  999.0,  999.0,  999.0,  999.0,  999.0,  999.0,  999.0,  999.0,  999.0,  999.0,  999.0,  999.0,  999.0,  999.0,  999.0,  999.0,  999.0,  999.0
2000/11/09 03:20,  999.0,  999.0,   -1.4,   -0.5,    0.9,    0.8,   -0.3,    3.0,    2.3,   -0.9,  999.0,  999.0,    2.8,  999.0,  999.0,  999.0,    2.0,  999.0,  999.0,  999.0,  999.0,  999.0,  999.0,  999.0,  999.0,  999.0,  999.0,  999.0,  999.0,  999.0,  999.0,  999.0,  999.0,  999.0,  999.0,  999.0,  999.0,  999.0,  999.0,  999.0,  999.0,  999.0,  999.0,  999.0,  999.0,  999.0,  999.0,  999.0,  999.0,  999.0,  999.0,  999.0,  999.0,  999.0,  999.0,  999.0,  999.0,  999.0
2000/11/09 03:30,  999.0,  999.0,  999.0,  999.0,    1.1,   -1.0,   -0.8,  999.0,   -0.5,   -1.1,    4.6,   -2.6,  999.0,  999.0,  999.0,    6.0,  999.0,   -6.8,   -1.0,    0.1,  999.0,  999.0,  999.0,  999.0,  999.0,  999.0,  999.0,  999.0,  999.0,  999.0,  999.0,  999.0,  999.0,  999.0,  999.0,  999.0,  999.0,  999.0,  999.0,  999.0,  999.0,  999.0,  999.0,  999.0,  999.0,  999.0,  999.0,  999.0,  999.0,  999.0,  999.0,  999.0,  999.0,  999.0,  999.0,  999.0,  999.0,  999.0
2000/11/09 03:40,  999.0,    1.2,   -2.1,    8.5,    4.1,   -6.8,   -1.3,   -0.3,    1.1,   -4.4,   -0.6,   -3.5,    0.1,  999.0,  999.0,  999.0,  999.0,  999.0,  999.0,  999.0,  999.0,  999.0,  999.0,  999.0,  999.0,  999.0,  999.0,  999.0,  999.0,  999.0,  999.0,  999.0,  999.0,  999.0,  999.0,  999.0,  999.0,  999.0,  999.0,  999.0,  999.0,  999.0,  999.0,  999.0,  999.0,  999.0,  999.0,  999.0,  999.0,  999.0,  999.0,  999.0,  999.0,  999.0,  999.0,  999.0,  999.0,  999.0
2000/11/09 03:50,  999.0,  999.0,  999.0,  999.0,   -2.4,   -2.4,    3.3,    4.2,   -5.0,    1.9,    2.4,  999.0,  999.0,  999.0,   -2.1,   -0.6,   -7.5,   -9.1,  999.0,  999.0,  999.0,  999.0,  999.0,  999.0,  999.0,  999.0,  999.0,  999.0,  -28.2,  -31.0,  -31.0,  999.0,  -32.1,  -33.3,  -34.1,  -41.4,  999.0,  -41.4,  -41.1,  999.0,  999.0,  -41.0,  999.0,  -41.2,  999.0,  999.0,  999.0,  999.0,  999.0,  999.0,  -41.0,  999.0,  -42.1,  999.0,  999.0,  999.0,  999.0,  999.0
2000/11/09 04:00,  999.0,  999.0,    1.5,  999.0,    1.6,   -0.2,   -2.0,    1.4,    3.5,  999.0,  999.0,  999.0,    3.9,    3.4,    2.6,  999.0,    2.8,  999.0,  999.0,  999.0,  999.0,  999.0,  999.0,  999.0,  999.0,  999.0,  999.0,  999.0,  999.0,  999.0,  999.0,  999.0,  999.0,  999.0,  999.0,  999.0,  999.0,  999.0,  999.0,  999.0,  999.0,  999.0,  999.0,  999.0,  999.0,  999.0,  999.0,  999.0,  999.0,  999.0,  999.0,  999.0,  999.0,  999.0,  999.0,  999.0,  999.0,  999.0
2000/11/09 04:10,  999.0,  999.0,  999.0,  999.0,    1.0,   -2.5,   -4.4,  999.0,  999.0,    8.9,  999.0,    2.6,    3.7,    3.8,  999.0,    4.3,  999.0,  999.0,  999.0,  999.0,  999.0,  999.0,  999.0,  999.0,  999.0,  999.0,  999.0,  999.0,  999.0,  999.0,  999.0,  999.0,  999.0,  999.0,  999.0,  999.0,  999.0,  999.0,  999.0,  999.0,  999.0,  999.0,  999.0,  999.0,  999.0,  999.0,  999.0,  999.0,  999.0,  999.0,  999.0,  999.0,  999.0,  999.0,  999.0,  999.0,  999.0,  999.0
2000/11/09 04:20,  999.0,  999.0,    0.4,    1.3,    1.9,    0.7,   -2.8,    4.1,    4.0,   -9.6,    3.6,  -18.0,  -19.2,  999.0,  999.0,  999.0,   13.8,    3.4,  999.0,  999.0,   -1.4,  999.0,  999.0,  999.0,  999.0,  999.0,  999.0,  999.0,  999.0,  999.0,  999.0,  999.0,  999.0,  999.0,  999.0,  999.0,  999.0,  999.0,  999.0,  999.0,  999.0,  999.0,  999.0,  999.0,  999.0,  -24.8,  999.0,  999.0,  999.0,  999.0,  999.0,  999.0,  999.0,  999.0,  999.0,  999.0,  999.0,  999.0
2000/11/09 04:30,  999.0,  999.0,  999.0,    1.8,    2.6,    3.5,    5.3,    4.9,    6.5,    5.0,    2.9,   -0.2,   -5.5,  999.0,  999.0,   -0.5,    2.5,  999.0,  999.0,  999.0,  999.0,   -0.5,  999.0,  999.0,  999.0,  999.0,  999.0,  999.0,  999.0,  999.0,  999.0,  999.0,  999.0,  -11.5,  999.0,  999.0,  999.0,  999.0,  999.0,  999.0,  999.0,  999.0,  999.0,  999.0,  999.0,  999.0,  999.0,  999.0,  999.0,  999.0,    1.2,  999.0,  999.0,  999.0,  999.0,  999.0,  999.0,  999.0
2000/11/09 04:40,  999.0,  999.0,  999.0,    2.3,    1.5,    8.1,    1.4,   -1.2,    0.4,    0.6,    2.0,    2.6,    5.8,   -3.7,   -9.0,  999.0,  999.0,  999.0,  999.0,   -4.7,  999.0,  999.0,  999.0,  -12.1,  999.0,  999.0,  999.0,  999.0,  999.0,  999.0,  -34.2,  -34.3,  999.0,  -36.1,  -35.8,  -36.8,  -38.5,  -15.5,  -39.3,  999.0,  999.0,  999.0,  999.0,  999.0,  999.0,  -42.7,  -41.4,  -41.6,  -40.5,  999.0,  999.0,  -42.0,  999.0,  999.0,  999.0,  -40.7,  -41.9,  -41.6
2000/11/09 04:50,  999.0,  999.0,  999.0,    5.1,    0.2,   -1.0,  999.0,   -1.1,  999.0,  999.0,  999.0,  999.0,  999.0,  999.0,  999.0,  999.0,   -6.9,  999.0,  999.0,  999.0,  999.0,  999.0,  999.0,  999.0,  999.0,  999.0,  999.0,  999.0,  999.0,  999.0,  999.0,  999.0,  999.0,  999.0,  999.0,  999.0,  -31.1,  999.0,  999.0,  999.0,  999.0,  999.0,  -40.3,  -40.8,  999.0,  999.0,  -40.7,  999.0,  999.0,  -41.5,  999.0,  -41.6,  999.0,  999.0,  999.0,  -31.3,  -41.5,  -42.0
2000/11/09 05:00,  999.0,  999.0,  999.0,   -0.0,    0.1,    0.2,  999.0,    3.3,   -0.6,  999.0,  999.0,  999.0,  999.0,  999.0,  999.0,  999.0,   20.3,  999.0,  999.0,  999.0,  999.0,  999.0,   13.6,   14.4,  999.0,  999.0,  -13.0,  999.0,  999.0,  999.0,  999.0,  999.0,  999.0,    3.6,  999.0,  999.0,  999.0,  999.0,  999.0,  999.0,  999.0,  999.0,  999.0,  999.0,  999.0,    0.3,  999.0,  999.0,  999.0,  999.0,    0.8,  999.0,    1.4,    0.1,  999.0,  999.0,  999.0,  999.0
2000/11/09 05:10,  999.0,  999.0,  999.0,   -0.3,    0.2,   -0.2,   -4.3,   -3.5,   -0.8,  999.0,  999.0,  999.0,  999.0,  999.0,    8.1,    8.2,  999.0,  999.0,  999.0,  999.0,  999.0,  999.0,  999.0,  999.0,  999.0,   11.4,   10.3,  999.0,  999.0,  999.0,  999.0,  999.0,  999.0,  999.0,    5.3,    2.9,    1.9,  999.0,    0.8,    0.6,  999.0,  999.0,  999.0,  999.0,  999.0,    0.5,  999.0,  999.0,    0.9,  999.0,  999.0,    0.4,    0.6,    0.6,  999.0,    0.9,  999.0,  999.0
2000/11/09 05:20,  999.0,    0.1,    0.5,    1.6,    1.0,    0.8,  999.0,    0.7,  999.0,  999.0,  999.0,  999.0,  999.0,  999.0,  999.0,  999.0,  999.0,  999.0,  999.0,  999.0,  999.0,  999.0,  999.0,  999.0,  999.0,  999.0,  999.0,  999.0,    9.3,   10.7,    7.4,    6.6,    8.1,    6.4,    5.8,    5.0,    1.4,    4.0,    0.6,    0.8,  999.0,    3.6,  999.0,    0.3,    0.2,  999.0,    0.7,    0.7,   -0.3,    1.0,    0.7,    0.4,    1.4,  999.0,    1.1,    0.5,    0.1,    0.3
2000/11/09 05:30,  999.0,   -0.1,    1.1,   -0.1,    1.1,    1.8,  999.0,  999.0,  999.0,  999.0,  999.0,  999.0,  999.0,  999.0,  999.0,  999.0,  999.0,  999.0,  999.0,  999.0,  999.0,  999.0,  999.0,  999.0,  999.0,  999.0,  999.0,  999.0,    7.4,    6.6,    5.3,  999.0,    3.3,    2.9,    2.0,    1.2,    0.7,    0.7,    0.5,    0.3,    0.9,  999.0,   -0.1,    0.6,    1.0,  999.0,    0.6,    0.9,   -0.7,    1.2,   -0.1,    0.6,  999.0,    1.2,  999.0,    0.2,   -0.3,    0.1
2000/11/09 05:40,  999.0,    1.9,   -0.3,   -0.9,    0.1,    0.7,  999.0,    1.9,  999.0,  999.0,  999.0,  999.0,  999.0,  999.0,  999.0,  999.0,  999.0,  999.0,  999.0,  999.0,  999.0,  999.0,  999.0,  999.0,  999.0,  999.0,  999.0,  999.0,   10.8,  999.0,    8.0,  999.0,    5.6,  999.0,    3.6,    3.1,    2.7,  999.0,  999.0,    0.5,  999.0,  999.0,  999.0,    0.8,    0.3,    0.6,  999.0,  999.0,  999.0,  999.0,    1.3,    1.2,    0.8,  999.0,  999.0,    1.0,  999.0,    1.3
2000/11/09 05:50,  999.0,    1.7,   -1.3,   -2.6,   -2.8,  999.0,  999.0,    0.3,   -0.0,  999.0,  999.0,  999.0,  999.0,  999.0,  999.0,  999.0,  999.0,  999.0,  999.0,  999.0,  999.0,  999.0,  999.0,  999.0,  999.0,  999.0,  999.0,  999.0,  999.0,  999.0,  999.0,  999.0,  999.0,  999.0,  999.0,  999.0,  999.0,  999.0,  999.0,  999.0,  999.0,  999.0,  999.0,  999.0,  999.0,  999.0,  999.0,  999.0,  999.0,  999.0,  999.0,  999.0,  999.0,  999.0,  999.0,  999.0,  999.0,  999.0
2000/11/09 06:00,  999.0,    0.0,   -2.8,   -0.2,  999.0,    0.5,    0.4,  999.0,    0.4,  999.0,  999.0,  999.0,  999.0,  999.0,  999.0,  999.0,  999.0,  999.0,  999.0,  999.0,  999.0,  999.0,  999.0,  999.0,  999.0,  999.0,  999.0,  999.0,  999.0,  999.0,  999.0,  999.0,  999.0,  999.0,  999.0,  999.0,  999.0,  999.0,  999.0,  999.0,  999.0,  999.0,  999.0,  999.0,  999.0,  999.0,  999.0,  999.0,  999.0,  999.0,  999.0,  999.0,  999.0,  999.0,  999.0,  999.0,  999.0,  999.0
2000/11/09 06:10,  999.0,  999.0,  999.0,    3.2,    0.2,   -0.1,  999.0,  999.0,  999.0,  999.0,  999.0,  999.0,  999.0,  999.0,   -0.4,  999.0,  999.0,  999.0,  999.0,  999.0,  999.0,  999.0,  999.0,  999.0,  999.0,  999.0,  999.0,  999.0,  999.0,  999.0,  999.0,  999.0,  999.0,  999.0,  999.0,  999.0,  999.0,  999.0,  999.0,  999.0,  999.0,  999.0,  999.0,  999.0,  999.0,  999.0,  999.0,  999.0,  999.0,  999.0,  999.0,  999.0,  999.0,  999.0,  999.0,  999.0,  999.0,  999.0
2000/11/09 06:20,  999.0,    3.3,   -4.2,   -2.4,   -2.3,   -0.2,    0.1,  999.0,    0.4,    0.6,  999.0,  999.0,  999.0,  999.0,  999.0,  999.0,  999.0,  999.0,  999.0,  999.0,  999.0,  999.0,  999.0,  999.0,  999.0,  999.0,  999.0,  999.0,  999.0,  999.0,  999.0,  999.0,  999.0,  999.0,  999.0,  999.0,  999.0,  999.0,  999.0,  999.0,  999.0,  999.0,  999.0,  999.0,  999.0,  999.0,  999.0,  999.0,  999.0,  999.0,  999.0,  999.0,  999.0,  999.0,  999.0,  999.0,  999.0,  999.0
2000/11/09 06:30,  999.0,    0.6,    0.2,   -1.8,   -1.7,    0.3,    0.2,    0.9,    0.3,    0.8,    0.8,  999.0,  999.0,  999.0,  999.0,  999.0,  999.0,  999.0,  999.0,  999.0,  999.0,  999.0,  999.0,  999.0,  999.0,  999.0,  999.0,  999.0,  999.0,  999.0,  999.0,  999.0,  999.0,  999.0,  999.0,  999.0,  999.0,  999.0,  999.0,  999.0,  999.0,  999.0,  999.0,  999.0,  999.0,  999.0,  999.0,  999.0,  999.0,  999.0,  999.0,  999.0,  999.0,  999.0,  999.0,  999.0,  999.0,  999.0
2000/11/09 06:40,  999.0,   -0.6,    0.1,   -1.1,   -0.9,  999.0,  999.0,    0.6,  999.0,    0.3,  999.0,  999.0,  999.0,  999.0,  999.0,  999.0,  999.0,  999.0,  999.0,  999.0,  999.0,  999.0,  999.0,  999.0,  999.0,  999.0,  999.0,  999.0,  999.0,  999.0,  999.0,  999.0,  999.0,  999.0,  999.0,  999.0,  999.0,  999.0,  999.0,  999.0,  999.0,  999.0,  999.0,  999.0,  999.0,  999.0,  999.0,  999.0,  999.0,  999.0,  999.0,  999.0,  999.0,  999.0,  999.0,  999.0,  999.0,  999.0
2000/11/09 06:50,  999.0,   -2.9,  999.0,   -0.9,   -0.8,  999.0,  999.0,  999.0,    0.5,    0.6,  999.0,  999.0,  999.0,  999.0,  999.0,  999.0,  999.0,  999.0,  999.0,  999.0,  999.0,  999.0,  999.0,  999.0,  999.0,  999.0,  999.0,  999.0,  999.0,  999.0,  999.0,  999.0,  999.0,  999.0,  999.0,  999.0,  999.0,  999.0,  999.0,  999.0,  999.0,  999.0,  999.0,  999.0,  999.0,  999.0,  999.0,  999.0,  999.0,  999.0,  999.0,  999.0,  999.0,  999.0,  999.0,  999.0,  999.0,  999.0
2000/11/09 07:00,  999.0,   -0.6,   -0.4,    1.6,    0.7,  999.0,    1.2,    2.4,    3.7,    0.9,    7.0,  999.0,  999.0,  999.0,  999.0,  999.0,    4.2,  999.0,  999.0,  999.0,   -2.5,  999.0,  999.0,  999.0,  999.0,  999.0,    7.1,    4.8,    3.4,  999.0,  999.0,    0.5,    0.8,    1.1,    0.8,    1.1,    1.3,    1.3,    0.6,    0.3,    1.0,    1.1,    1.1,  999.0,    1.0,    0.6,    0.3,    1.1,    0.6,  999.0,  999.0,    1.5,    0.9,    0.7,    0.5,    0.7,    0.8,    0.7
2000/11/09 07:10,  999.0,   -3.4,    2.8,   -2.7,  999.0,  999.0,  999.0,   -1.5,    6.9,    5.2,    3.7,  999.0,  999.0,  999.0,  999.0,  999.0,  999.0,  999.0,  999.0,  999.0,  999.0,  999.0,  999.0,  999.0,   10.0,  999.0,    7.9,  999.0,  999.0,    4.0,  999.0,  999.0,  999.0,  999.0,    0.6,    0.7,    1.3,    0.2,    0.6,  999.0,  999.0,  999.0,    1.3,    1.5,    1.2,  999.0,  999.0,    1.0,  999.0,    0.8,  999.0,  999.0,  999.0,  999.0,  999.0,    0.8,  999.0,    0.5
2000/11/09 07:20,  999.0,   -4.6,   -8.1,   -5.0,   -8.2,  999.0,  999.0,  999.0,  999.0,    2.8,  999.0,  999.0,  999.0,  999.0,  999.0,  999.0,  999.0,  999.0,  999.0,  999.0,  999.0,  999.0,  999.0,  999.0,  999.0,  999.0,  999.0,  999.0,  999.0,  999.0,  999.0,  999.0,  999.0,  999.0,  999.0,  999.0,  999.0,  999.0,  999.0,  999.0,  999.0,  999.0,  999.0,  999.0,  999.0,  999.0,  999.0,  999.0,  999.0,  999.0,  999.0,  999.0,  999.0,    0.9,  999.0,  999.0,    0.4,  999.0
2000/11/09 07:30,  999.0,  999.0,   -0.8,    1.2,    2.5,    0.4,  999.0,  999.0,    2.7,  999.0,  999.0,    2.5,  999.0,  999.0,  999.0,  999.0,  999.0,  999.0,  999.0,  999.0,  999.0,  999.0,  999.0,  999.0,  999.0,  999.0,  999.0,  999.0,  999.0,  999.0,  999.0,  999.0,  999.0,  999.0,  999.0,  999.0,  999.0,  999.0,  999.0,  999.0,    0.9,    1.0,  999.0,    1.2,  999.0,    0.8,  999.0,    0.4,    0.5,    0.1,    1.1,    0.3,   -0.1,    0.6,  999.0,    0.0,    0.5,  999.0
2000/11/09 07:40,  999.0,    0.3,    0.2,    0.7,   -1.1,    0.1,   -1.5,    3.6,    4.7,  999.0,  999.0,  999.0,  999.0,  999.0,  999.0,  999.0,  999.0,  999.0,  999.0,  999.0,  999.0,  999.0,  999.0,  999.0,  999.0,  999.0,  999.0,  999.0,  999.0,  999.0,  999.0,  999.0,  999.0,    0.7,    0.8,  999.0,  999.0,  999.0,    1.1,    0.7,    0.3,  999.0,    0.3,  999.0,    0.8,    0.6,    0.8,    0.2,  999.0,    0.8,    0.3,    0.5,    1.2,    0.5,    0.5,    0.3,    1.3,    1.3
2000/11/09 07:50,  999.0,   -1.6,   -1.1,    1.7,    0.9,    1.0,    4.2,    4.6,    0.9,    4.7,  999.0,  999.0,  999.0,  999.0,  999.0,  999.0,  999.0,  999.0,  999.0,  999.0,  999.0,  999.0,  999.0,    7.7,  999.0,  999.0,  999.0,  999.0,  999.0,    6.4,  999.0,    5.0,    2.9,    1.3,  999.0,    0.9,    0.2,    0.8,  999.0,    0.4,    0.4,    0.4,    0.6,    0.7,    1.4,    0.8,    0.5,    1.1,    0.4,    1.0,    0.4,    0.8,    0.0,    0.0,    0.3,   -0.0,   -0.1,    0.7
2000/11/09 08:00,  999.0,    0.4,   22.0,    3.4,    0.7,    0.3,    1.6,    0.9,    0.7,    2.0,  999.0,  999.0,  999.0,  999.0,  999.0,  999.0,  999.0,  999.0,  999.0,  999.0,  999.0,  999.0,  999.0,  999.0,  999.0,  999.0,   13.6,   13.4,  999.0,  999.0,   10.8,   10.9,  999.0,  999.0,  999.0,  999.0,    8.0,    6.2,    3.9,  999.0,  999.0,    4.7,    4.4,    1.7,  999.0,    1.4,  999.0,  999.0,    0.4,    1.4,    0.4,  999.0,    0.4,    0.9,    0.8,    0.8,    0.1,  999.0
2000/11/09 08:10,  999.0,   -3.0,   -1.1,    0.1,    0.9,    0.4,    2.5,    1.2,    3.0,  999.0,   -0.3,  999.0,  999.0,  999.0,  999.0,  999.0,  999.0,  999.0,  999.0,  999.0,  999.0,  999.0,  999.0,  999.0,  999.0,  999.0,   16.0,   13.9,  999.0,   13.2,   11.9,  999.0,  999.0,  999.0,    9.4,    8.7,  999.0,  999.0,  999.0,  999.0,  999.0,  999.0,  999.0,    3.3,    1.7,  999.0,    0.4,  999.0,  999.0,  999.0,  999.0,    0.6,  999.0,  999.0,    1.0,    0.6,    0.6,    1.0
2000/11/09 08:20,  999.0,   -3.4,   -2.8,    1.2,    5.9,    1.4,  999.0,  999.0,    0.9,    2.9,    2.8,  999.0,  999.0,  999.0,  999.0,  999.0,  999.0,  999.0,  999.0,  999.0,  999.0,  999.0,  999.0,  999.0,  999.0,  999.0,  999.0,  999.0,  999.0,  999.0,  999.0,  999.0,  999.0,  999.0,  999.0,  999.0,  999.0,  999.0,  999.0,  999.0,  999.0,  999.0,  999.0,  999.0,  999.0,  999.0,  999.0,    4.4,  999.0,  999.0,    3.0,    2.5,  999.0,  999.0,    0.9,    0.2,    0.7,    0.9
2000/11/09 08:30,  999.0,  999.0,    8.4,    0.6,    3.7,    0.2,    0.6,    0.6,    0.9,    2.4,    0.9,    0.3,  999.0,  999.0,  999.0,  999.0,  999.0,  999.0,  999.0,  999.0,  999.0,   15.6,  999.0,  999.0,  999.0,  999.0,  999.0,   10.1,    9.2,  999.0,  999.0,  999.0,    5.4,  999.0,  999.0,  999.0,    2.0,  999.0,    0.1,  999.0,    0.5,  999.0,  999.0,  999.0,    1.1,    1.1,    0.5,    1.4,    0.6,    0.8,    0.3,    0.7,    0.3,    0.3,    0.9,    0.2,    0.3,    0.6
2000/11/09 08:40,  999.0,   -2.0,   -2.8,   -3.4,   -0.7,   -0.4,    3.7,    3.0,    2.4,  999.0,  999.0,    3.0,    2.8,  999.0,  999.0,  999.0,  999.0,  999.0,  999.0,  999.0,  999.0,  999.0,  999.0,   11.6,   10.3,    7.6,  999.0,  999.0,    3.3,    6.3,    5.2,  999.0,  999.0,    7.9,  999.0,  999.0,    5.7,    5.7,    4.4,    0.3,  999.0,    2.5,    1.2,    1.1,    0.8,    0.8,  999.0,    1.0,    0.8,   -0.0,    0.6,    0.6,    1.0,  999.0,  999.0,    0.9,  999.0,  999.0
2000/11/09 08:50,  999.0,  999.0,  999.0,    0.0,   -0.3,   -0.7,    2.2,    4.6,    2.5,  999.0,  999.0,  999.0,  999.0,  999.0,  999.0,  999.0,  999.0,  999.0,  999.0,  999.0,  999.0,  999.0,  999.0,   14.9,   14.8,   12.7,    9.8,   12.5,  999.0,    9.5,    7.8,    6.8,    5.1,    4.9,    3.6,    3.1,    1.8,    0.7,  999.0,    1.7,    4.8,    6.5,    1.7,    6.7,    9.1,    8.4,   14.3,   16.5,  999.0,   18.1,   21.1,   22.7,  999.0,   26.2,   27.8,   29.5,   31.4,   32.8
2000/11/09 09:00,  999.0,   -0.1,  999.0,   -0.9,   -1.0,   -0.8,    0.1,    3.2,    4.1,  999.0,  999.0,  999.0,  999.0,  999.0,  999.0,  999.0,  999.0,  999.0,  999.0,  999.0,  999.0,  999.0,   17.0,   11.3,  999.0,    7.4,   42.0,    8.2,   19.0,    6.1,   26.0,   25.7,   17.0,   21.3,   16.5,    2.9,    4.9,   15.1,   14.6,    2.3,   41.5,   21.2,   41.2,    0.8,   21.1,  999.0,   20.9,   41.3,   41.8,    0.6,    0.6,  999.0,    0.2,    0.7,    1.0,  999.0,  999.0,    0.3
2000/11/09 09:10,  999.0,    0.3,    0.3,   -1.0,   -1.2,    0.4,    1.8,    2.3,  999.0,  999.0,  999.0,  999.0,  999.0,  999.0,  999.0,  999.0,   22.3,   23.5,  999.0,   24.1,   18.9,   18.0,  999.0,   36.2,   27.4,   40.5,   41.8,   42.0,   13.0,   41.6,   42.2,   26.6,   26.2,   42.1,    9.9,   41.5,   25.1,   42.5,   24.4,    5.9,   41.4,   41.8,   23.3,   42.0,   41.3,  999.0,   21.7,   41.8,   21.0,   42.0,   21.2,   42.0,   41.7,   41.8,   40.9,   41.7,  999.0,   42.2
2000/11/09 09:20,  999.0,  999.0,  999.0,  999.0,  999.0,    1.4,    0.1,  999.0,    3.1,  999.0,  999.0,  999.0,  999.0,  999.0,  999.0,  999.0,   22.4,   25.2,   24.7,   23.1,   28.0,   29.8,   33.5,  999.0,   35.6,   37.4,  999.0,   41.0,  999.0,   42.3,  999.0,   42.4,   42.0,   41.7,   42.0,   42.2,   41.9,   42.1,   42.0,   42.2,   41.5,   41.6,  999.0,   13.0,   41.7,   41.7,   38.6,   41.9,   33.2,   26.3,   41.5,   28.3,   42.0,   21.5,   31.7,   34.8,   42.0,   42.4
2000/11/09 09:30,  999.0,    1.2,    0.1,    1.1,   -0.0,    0.5,    1.7,    2.2,    0.8,  999.0,  999.0,  999.0,  999.0,  999.0,  999.0,  999.0,  999.0,   22.2,   29.6,   31.3,   42.3,   42.7,   32.7,   32.8,   41.6,   42.5,  999.0,   36.9,   26.9,   27.1,   24.9,   17.5,   29.0,    7.2,   15.6,  999.0,   21.2,   34.4,   30.9,    9.6,   15.9,   23.8,   33.7,   17.1,   17.4,   35.4,   18.0,   35.8,   19.4,   37.6,   19.2,    1.1,   19.8,   20.1,   20.1,    0.9,  999.0,   21.2
2000/11/09 09:40,  999.0,   -0.2,   -0.1,   -0.4,    0.1,    0.5,    2.3,    3.2,    3.3,  999.0,  999.0,  999.0,  999.0,  999.0,  999.0,  999.0,  999.0,  999.0,  999.0,  999.0,  999.0,  999.0,  999.0,  999.0,  999.0,  999.0,  999.0,  999.0,  999.0,  999.0,  999.0,  999.0,  999.0,  999.0,  999.0,  999.0,  999.0,  999.0,  999.0,  999.0,  999.0,  999.0,  999.0,  999.0,  999.0,  999.0,  999.0,  999.0,  999.0,  999.0,  999.0,  999.0,  999.0,  999.0,  999.0,  999.0,  999.0,    0.7
2000/11/09 09:50,  999.0,    0.2,    0.6,    1.4,    1.7,    1.6,    2.4,    1.1,   -0.7,  999.0,  999.0,  999.0,  999.0,  999.0,  999.0,  999.0,   21.4,  999.0,  999.0,   21.5,  999.0,  999.0,  999.0,   27.7,  999.0,   30.5,  999.0,   33.8,   34.5,   36.8,  999.0,  999.0,  999.0,  999.0,  999.0,  999.0,  -41.6,  999.0,  999.0,  -21.1,  -21.0,  999.0,  999.0,  999.0,  999.0,  -31.1,  999.0,  -41.6,  999.0,  999.0,  999.0,  -41.5,  999.0,  999.0,  999.0,  -37.0,  999.0,  -39.3
2000/11/09 10:00,  999.0,   -0.6,    0.4,    1.3,    1.8,    1.8,    2.1,  999.0,  999.0,  999.0,  999.0,  999.0,  999.0,  999.0,  999.0,  999.0,  999.0,  999.0,  999.0,  999.0,  999.0,  999.0,  999.0,  999.0,  999.0,  999.0,  999.0,  -34.2,  -42.3,  -31.8,  -42.2,  -42.2,  999.0,  999.0,  999.0,  -41.6,  -42.2,  999.0,  -41.9,  -42.2,  -41.7,  -42.4,  999.0,  999.0,  -41.9,  -41.6,  -42.5,  -41.6,  -41.8,  -41.5,  -41.5,  -41.4,  -42.1,  -42.1,  -41.3,  -41.5,  -41.7,  -41.9
2000/11/09 10:10,  999.0,   -0.3,   -0.6,    1.6,    2.1,    2.9,    0.7,    0.5,  999.0,  999.0,  999.0,  999.0,  999.0,  999.0,  999.0,  999.0,  999.0,  -26.5,  -29.4,  999.0,  999.0,  -34.4,  -37.5,  -34.6,  -41.4,  -39.5,  -41.8,  -42.1,  -41.9,  -41.7,  -41.6,  -42.1,  -42.1,  -41.8,  -42.1,  -42.0,  -42.6,  999.0,  -42.1,  -41.6,  -42.6,  -42.4,  -41.9,  -41.7,  -41.4,  -41.6,  -41.7,  -42.1,  -42.0,  -41.6,  -42.2,  -41.9,  -41.9,  -42.2,  -42.4,  -41.9,  -42.3,  -41.9
2000/11/09 10:20,  999.0,    0.1,    0.4,    0.9,    2.0,    2.4,    2.5,    2.5,    1.4,  999.0,  999.0,  999.0,  999.0,  999.0,  999.0,  999.0,  999.0,  999.0,  -25.1,  999.0,  999.0,  999.0,  -27.4,  -29.2,  999.0,  999.0,  999.0,  999.0,  999.0,  -39.1,  999.0,  -41.6,  -41.8,  999.0,  999.0,  999.0,  999.0,  -41.3,  999.0,  -41.2,  999.0,  -41.2,  -41.4,  -41.7,  -41.7,  999.0,  -42.0,  -41.7,  999.0,  999.0,  -41.1,  -41.2,  -41.6,  999.0,  999.0,  999.0,  999.0,  -41.0
2000/11/09 10:30,  999.0,   -0.5,    1.8,    1.7,    1.6,    2.4,    2.2,    2.7,  999.0,  999.0,  999.0,  999.0,  999.0,  999.0,  999.0,  -30.7,  -33.3,  -35.9,  -37.7,  -40.0,  999.0,  999.0,  999.0,  999.0,  999.0,  999.0,   -8.5,  999.0,  999.0,  999.0,  999.0,  999.0,  999.0,  999.0,  999.0,  999.0,  999.0,  999.0,  999.0,  999.0,  999.0,  999.0,  999.0,  999.0,  -18.5,  999.0,  999.0,    1.1,  999.0,  999.0,  999.0,  -41.8,  -18.9,  -26.8,  999.0,  999.0,  -19.9,  -20.1
2000/11/09 10:40,  999.0,    1.8,    1.6,    1.4,    1.0,    2.1,    3.0,  999.0,  999.0,  999.0,  999.0,  999.0,  999.0,  999.0,  999.0,  999.0,  999.0,  999.0,  999.0,  999.0,  999.0,  999.0,  -17.1,  999.0,  999.0,  999.0,  999.0,  999.0,  999.0,  999.0,  999.0,  999.0,  -36.2,  -37.3,  -38.2,  -38.4,  -39.5,  999.0,  999.0,  999.0,  -41.8,  -40.4,  -40.7,  -41.4,  -40.9,  -41.7,  -41.9,  -41.4,  -41.2,  -41.2,  -41.6,  -41.6,  -41.8,  -41.7,  -41.6,  -41.7,  -41.8,  -41.8
2000/11/09 10:50,  999.0,    0.5,    0.6,    0.6,   -0.7,   -0.1,    2.0,   -0.3,    0.2,    0.3,   -0.4,  999.0,  999.0,  999.0,  999.0,   -1.8,  999.0,  999.0,  999.0,  999.0,  999.0,  999.0,  999.0,  999.0,  -39.6,  -42.2,  -42.4,  -41.8,  999.0,  -42.0,  999.0,  -39.7,  -41.3,  -40.6,  -41.6,  -41.7,  -41.6,  -41.7,  -41.9,  -41.7,  -41.8,  -42.3,  -42.0,  -41.8,  -42.0,  -41.6,  -41.8,  -41.7,  -42.4,  -42.1,  -42.0,  -41.6,  -42.1,  -42.1,  -41.8,  -41.8,  -41.2,  -41.8
2000/11/09 11:00,  999.0,   -0.1,    0.2,    0.5,    0.4,    0.4,    0.6,    0.5,   -0.2,    0.3,  999.0,    1.1,  999.0,  999.0,  999.0,  -22.1,  -22.2,  -24.1,  -25.1,  999.0,  -23.5,  999.0,  999.0,  -16.1,  -26.2,  -28.6,  -13.4,  -29.6,  -29.9,  -29.9,  -29.6,  -41.9,   -6.3,  -23.6,  -23.2,  999.0,  -22.1,  -28.0,  -41.9,   -1.1,  -28.1,  -41.7,  -41.4,  -42.1,  -41.4,  -20.9,  -14.3,  -28.1,  -21.5,  -10.8,   20.4,  -21.4,  -21.1,   -0.2,  -20.9,  -41.4,  -20.9,  -28.4
2000/11/09 11:10,  999.0,  999.0,  999.0,    0.9,    1.2,    0.7,    1.7,    1.7,    0.6,    0.6,    3.7,  999.0,  999.0,  999.0,  999.0,  999.0,  -20.3,  -19.4,  999.0,  -18.1,  -17.0,  -16.3,  999.0,  -26.3,  -33.9,  -27.6,  -11.6,  999.0,  -21.8,   -8.2,  999.0,  -28.0,  999.0,  999.0,  -21.0,  999.0,  999.0,  -14.0,  -11.7,   -9.2,   -6.8,   -4.7,   -2.7,   -0.8,   -0.0,  -42.1,   -0.1,  -14.2,    0.7,    0.1,  -42.5,    1.1,  -20.5,   -1.0,   -1.1,  -41.3,  -13.9,   19.8
2000/11/09 11:20,  999.0,    2.0,    1.9,    1.4,    1.2,    0.2,    1.5,    1.6,    1.2,    1.7,    1.3,  999.0,  999.0,  999.0,  999.0,  999.0,  999.0,  -23.6,  999.0,  -23.7,  -37.5,  -31.5,  -29.5,  -35.6,  -32.7,  -36.0,  -39.9,  999.0,  999.0,  -42.2,  -41.8,  -42.3,  999.0,  999.0,  -41.8,  -41.8,  999.0,  -41.7,  999.0,  -41.8,  999.0,  999.0,  -41.1,  999.0,  999.0,    0.7,  -13.5,    1.0,   -9.7,   -6.3,   -6.0,  999.0,    0.8,    1.0,    0.6,    0.3,    0.5,    0.4
2000/11/09 11:30,  999.0,    0.4,    0.9,    1.2,    0.4,    0.3,    0.9,    1.0,    1.7,    0.3,    0.8,  999.0,  999.0,  999.0,  999.0,  999.0,  -20.8,  -22.0,  -25.8,  -26.2,  -27.7,  -28.9,  -29.6,  -31.5,  -32.3,  -35.2,  -36.3,  -37.8,  -39.3,  999.0,  -41.6,  999.0,  999.0,  999.0,  999.0,  999.0,  999.0,  999.0,  999.0,  999.0,  999.0,  999.0,  999.0,  999.0,  999.0,    0.5,    0.9,    0.8,    0.5,    0.6,    0.7,    0.7,    0.7,    0.7,    0.9,    0.6,    0.8,    0.6
2000/11/09 11:40,  999.0,    1.2,    0.6,    0.4,    1.2,    1.8,    1.0,    1.1,    1.3,    1.0,    0.7,  999.0,  999.0,  999.0,  999.0,  999.0,  999.0,  -26.8,  -26.5,  -29.2,  -30.4,  -31.6,  -33.0,  -34.3,  -35.4,  -39.0,  999.0,  999.0,  999.0,  999.0,  999.0,  999.0,  999.0,  999.0,  999.0,  999.0,  999.0,  999.0,  999.0,  999.0,  999.0,  999.0,    0.5,  999.0,    0.8,    0.4,    0.7,    0.6,    0.5,    0.4,    0.6,    0.9,    0.7,    0.3,    0.5,    0.6,    0.9,    0.6
2000/11/09 11:50,  999.0,    1.2,    0.5,    1.8,    2.4,    0.4,    0.7,    2.0,    2.2,    1.2,    1.5,  999.0,  999.0,  999.0,  999.0,  999.0,  -24.6,  -26.8,  -27.6,  -29.7,  -30.8,  -32.4,  -33.5,  -36.4,  999.0,  999.0,  999.0,  999.0,  999.0,  999.0,  999.0,  999.0,  999.0,  999.0,  999.0,  999.0,  999.0,  999.0,  999.0,  999.0,    0.8,  999.0,    0.5,    1.0,    0.8,    1.1,    0.8,    0.4,    0.8,    0.6,    1.0,    1.1,    0.9,    0.8,    0.8,    0.6,    0.5,    0.5
2000/11/09 12:00,  999.0,    0.4,   -0.7,  999.0,   -0.5,  999.0,    1.1,    0.5,    1.3,  999.0,  999.0,   -2.5,  999.0,  -22.2,  -22.8,   18.3,  -25.7,  -27.7,  -30.5,  999.0,  -31.4,  -32.9,  -33.9,  999.0,  999.0,  999.0,  999.0,  999.0,  999.0,  999.0,  999.0,  999.0,  999.0,  -41.5,  999.0,  -42.2,  -41.6,  -16.1,  -25.6,  999.0,    0.6,    0.8,  999.0,  999.0,  999.0,  999.0,  999.0,    0.8,    0.5,  999.0,  999.0,  999.0,   -9.7,  999.0,  999.0,    0.8,    1.2,  999.0
2000/11/09 12:10,  999.0,    2.3,    1.7,    0.5,    0.4,    0.1,    0.1,    0.3,    0.3,    0.3,   -1.3,   -1.1,   -1.9,   -0.6,    0.0,  999.0,  999.0,  999.0,  999.0,  999.0,  999.0,  999.0,  999.0,  999.0,  -30.9,  999.0,  999.0,  999.0,  999.0,  999.0,  999.0,  999.0,  999.0,  999.0,    4.4,    5.0,    3.4,  999.0,    2.1,    1.2,    1.8,    0.3,    0.9,    0.7,    1.0,    0.8,    0.8,    0.7,    1.0,    0.7,    1.0,    0.5,  -13.5,    0.9,    1.0,    0.8,    0.8,    0.9
2000/11/09 12:20,  999.0,  999.0,    0.2,    1.1,    1.1,    0.6,    2.0,    2.0,   -0.4,   -0.2,    0.3,    1.3,    2.8,    1.5,    1.3,  999.0,  999.0,  999.0,  999.0,  999.0,  999.0,  999.0,  999.0,  999.0,    6.6,  999.0,  -15.3,  -10.0,  999.0,  999.0,  999.0,    9.0,    9.1,  999.0,    7.4,    7.2,    6.3,    5.5,  999.0,    3.5,    3.5,  999.0,    1.9,    1.4,    1.0,    0.5,    1.3,    0.8,    1.0,  999.0,    0.7,    1.1,    0.7,    0.8,    1.1,    0.9,    0.8,    0.3
2000/11/09 12:30,  999.0,  999.0,  999.0,  999.0,  999.0,   -0.8,  999.0,  999.0,  999.0,  999.0,  999.0,  999.0,  999.0,  -21.6,  -22.3,  -23.2,  -24.9,  -25.6,  -25.4,   -4.5,  -27.9,  -28.8,  999.0,  999.0,  -32.5,    8.6,  -13.2,    7.1,  999.0,    5.0,    4.1,    2.9,    1.9,  999.0,    0.9,    0.4,    0.5,    2.2,    0.7,    1.3,    0.2,    0.6,    1.1,    1.6,    1.0,    0.8,  -13.7,    0.9,  -21.0,  -20.8,    0.2,  -20.3,  -42.0,  -20.8,  -42.0,  -20.4,  999.0,  -41.6
2000/11/09 12:40,  999.0,   -0.7,   -0.1,   -3.8,    0.3,    0.3,    0.1,   -1.5,   -2.2,   -2.4,   -2.2,   -0.6,   -6.6,   -6.9,   -3.1,  -23.7,   -3.3,   28.6,    4.0,    1.0,   31.5,  999.0,   37.2,   20.5,    0.4,    0.6,  999.0,  -24.0,  999.0,    0.6,    1.1,  999.0,    0.4,  999.0,  -42.8,    0.9,  -21.0,  -20.6,  -21.0,  -20.0,  -20.6,  -13.8,  -21.4,  -14.0,  -20.8,    0.3,    0.1,  -20.7,    0.1,    1.0,  999.0,   -9.5,  -20.4,  -20.3,  999.0,  -21.4,   -7.0,   -6.5
2000/11/09 12:50,   -9.5,   -2.0,   -3.2,   -1.4,   -1.6,   -1.6,   -2.4,   -3.1,   -6.3,   -7.6,   -9.4,   -9.5,  -10.3,   -4.9,   -4.5,  999.0,  999.0,  999.0,  999.0,  999.0,  999.0,  999.0,  999.0,   -1.1,  999.0,   -0.3,    2.1,    0.6,    0.4,    0.1,  999.0,    0.0,    0.3,   -0.1,  999.0,   -0.2,  999.0,   -0.7,   -0.1,   -0.4,   -1.8,   -1.9,   20.4,   20.6,  999.0,   20.5,   20.8,   20.8,  999.0,   41.9,  999.0,   20.1,   42.0,   20.3,   -1.1,   -2.0,  999.0,   -1.0
2000/11/09 13:00,  999.0,  999.0,   -0.2,    0.6,    0.2,   -6.2,   -0.0,    0.9,  999.0,  999.0,  -21.1,  999.0,  999.0,  -10.2,  -21.0,  -14.8,  999.0,  -16.0,  -14.2,  999.0,  999.0,   -7.4,   -7.9,   -4.5,   16.8,   -2.4,   -1.5,   -0.9,   -0.5,    6.5,   -1.1,   13.4,   13.2,   -0.9,    6.2,   -1.3,   20.6,   -0.2,    6.5,   -0.5,    9.7,   20.4,   20.5,    9.9,   20.8,   -0.6,   20.4,   20.2,    9.2,   20.4,   -0.9,   20.8,   20.4,   41.8,   13.2,   -0.9,  -20.8,    6.5
2000/11/09 13:10,   -1.0,  999.0,  999.0,   -9.7,    0.9,   -0.0,    0.5,    2.1,    3.6,  -21.2,  999.0,  -20.8,  999.0,  999.0,  -21.4,  -20.0,  -15.9,  999.0,  -12.2,   12.5,   -7.6,   -6.1,   -4.4,   -1.9,  999.0,   -1.3,   -1.0,   -0.6,   -0.7,   -0.8,   -0.8,   -1.0,   -0.8,   -0.6,   -0.8,   -0.9,   -1.1,   -0.4,   -0.7,   -0.6,   -1.0,   -1.4,   -0.2,   -0.7,   -1.0,   -0.6,   -0.5,   -0.6,   -0.9,   -0.4,   -0.9,   -1.0,   -0.5,   -0.6,   -0.7,   -0.9,   -0.7,  999.0
2000/11/09 13:20,  999.0,  999.0,  999.0,    0.1,    0.4,    0.7,    0.2,    0.2,    1.0,    2.2,    1.4,   -0.4,    2.4,    0.8,   -0.4,  999.0,  999.0,  999.0,  999.0,  999.0,  999.0,  999.0,  999.0,  999.0,  -15.6,  999.0,  999.0,  -41.9,  -42.8,  -42.6,  999.0,  -42.5,  999.0,  -42.8,  -42.5,  999.0,  999.0,  999.0,  -42.1,  999.0,  999.0,  999.0,  999.0,  -42.5,  -42.2,  999.0,  999.0,  999.0,  999.0,  999.0,  999.0,  999.0,  999.0,  999.0,  999.0,  999.0,  999.0,  999.0
2000/11/09 13:30,  999.0,  999.0,    0.7,    1.2,    2.0,   -7.0,   -6.9,   -6.8,    0.4,    0.4,   -6.1,  999.0,  -22.1,  999.0,  999.0,  999.0,  -21.5,  -22.0,  -24.5,  -25.6,  -20.2,  -27.0,  -20.0,  -41.3,  -41.2,  -23.2,  -42.0,  -21.1,  -36.8,  -21.9,  -18.3,  -14.8,  -25.5,  -17.4,  -21.1,  -21.3,  -37.2,  -10.9,   -1.4,   -6.6,   -5.9,   -2.7,   -0.7,   -4.9,   -1.1,  -11.0,  -21.2,   -7.4,   -8.0,   -7.5,  -17.1,   -0.7,  999.0,   -0.8,   -1.2,   -6.7,  -12.2,  999.0
2000/11/09 13:40,  999.0,  999.0,  999.0,  -21.8,  -21.7,  -10.3,  999.0,  -10.9,  -20.7,  -10.6,  -20.8,  -10.3,  -21.1,  -11.9,   -1.0,   -9.3,   -7.4,   -5.3,   -0.8,   -3.3,   -2.9,   -0.6,   -1.0,   -0.9,   -0.1,   -0.4,   -0.5,   -0.7,   -0.6,   -0.4,   -0.6,   -1.2,   -0.6,   -0.9,   -0.7,   -0.7,   -1.0,   -0.9,   -0.4,   -0.9,   -0.7,   -0.3,   -0.5,   -0.9,   -0.7,   -0.2,   -0.6,   -1.0,   -0.6,   -0.9,   -0.5,   -0.9,   -0.9,   -0.3,   -0.8,  999.0,   -0.9,  999.0
2000/11/09 13:50,    3.8,    6.9,   -2.9,   -0.9,   -6.7,   -8.6,   -9.2,  -14.4,  -12.7,  -10.5,  999.0,    3.2,    1.9,  -13.9,    5.2,  999.0,    4.9,    7.3,  -11.8,   14.3,   -7.1,  999.0,   -2.9,   -1.0,  999.0,   -0.8,   -0.9,  999.0,  999.0,   -0.5,   -0.6,  999.0,  999.0,   -0.8,   -0.9,   -1.0,   -1.2,   -1.0,   -1.1,  999.0,   -1.1,    0.0,   -0.5,   -0.7,   -0.6,  999.0,   -1.0,   -0.6,    0.1,   -0.5,   -0.7,   -0.7,   -0.7,   -0.6,   -0.7,   -1.0,   -0.0,   -0.0
2000/11/09 14:00,  999.0,    2.0,   -1.1,   -0.7,   -0.6,    0.2,    1.0,    1.1,    2.7,    2.5,    2.5,    3.1,    2.6,   -2.4,   -1.2,   -0.8,    0.0,   -2.7,   -3.4,   -6.1,   -7.7,   -3.0,  999.0,  999.0,  999.0,   -8.6,  999.0,   -3.5,  999.0,  999.0,  999.0,  999.0,   -0.7,   -0.6,   -0.7,   -0.5,   -0.6,   -2.7,   -7.2,   -7.6,   -8.3,  -15.2,  999.0,  -16.0,  -16.2,  -21.0,  -29.0,  -31.8,  -34.0,  -29.9,  -37.7,  -38.4,  -41.9,  -40.8,  -41.9,  -41.1,  -41.7,  -42.1
2000/11/09 14:10,  999.0,  999.0,    0.7,    0.6,    0.0,    0.5,    0.5,    1.4,    1.7,    1.9,    0.9,    0.4,   -0.5,  999.0,   -2.4,   -1.1,  999.0,  999.0,  999.0,    2.0,    3.7,    5.1,  999.0,  999.0,  999.0,    0.9,   -0.4,   -1.0,   -0.7,   -1.1,   -0.7,   -0.6,   -0.8,   -1.1,   -0.7,   -0.6,   -0.8,   -1.7,   -5.0,   -7.8,   -9.9,  -13.1,  999.0,  -18.6,  -21.2,  -23.6,  -26.4,  -29.0,  999.0,  -34.2,  -36.9,  999.0,  999.0,  999.0,  -42.2,  -42.3,  -42.0,  -41.7
2000/11/09 14:20,    6.0,    0.0,    0.3,   -0.5,   -0.6,   -0.6,   -0.1,    0.8,    1.1,    1.1,    0.5,   -0.5,   -1.6,    0.7,  999.0,  999.0,  999.0,  999.0,  999.0,  999.0,    6.6,  999.0,  999.0,  999.0,  999.0,   -1.2,   -0.6,   -1.0,   -0.6,   -1.2,   -0.7,   -0.7,   -0.6,   -0.9,   -0.8,   -1.3,   -2.7,   -2.8,   -4.8,   -0.9,   -7.1,   -8.4,  -10.4,    7.9,   -5.6,  -11.0,  -21.4,  -28.9,  999.0,  -31.7,  -34.8,  -38.6,  -40.8,  -41.9,  -28.4,  -21.0,  -41.8,  -41.3
2000/11/09 14:30,  999.0,   14.2,   -2.2,  -12.5,  -12.5,  -10.2,  -10.9,    0.1,  -14.3,  -10.1,   -1.0,   -8.1,   -9.0,   -9.9,   -6.9,   -7.8,   -1.5,    2.2,   -3.2,   -2.0,  999.0,  999.0,  -19.2,  999.0,   -5.6,  999.0,  -21.7,  -21.5,  -42.0,   -0.7,   -0.8,  -21.6,  -21.6,   -0.6,  -27.4,   -0.6,   20.1,   14.1,    7.5,  -37.9,    0.2,   -0.2,   41.9,  -41.8,   -0.1,   41.8,  999.0,   41.5,  999.0,   -0.1,  -41.6,  -41.8,  -41.7,  999.0,  999.0,  -32.5,  -28.4,   -0.6
2000/11/09 14:40,  999.0,  -12.5,  -17.2,  -17.7,  -17.8,  -16.1,  -15.0,  -14.9,  -14.0,   -8.8,   -6.2,   -5.7,   -6.2,   -7.2,   -7.7,   -7.7,   -8.5,  -11.2,  -14.4,  -16.4,  -20.2,  999.0,  -12.8,  999.0,  -29.6,  -40.6,  -16.5,  -30.7,  -36.4,  -42.3,  999.0,  -20.8,  999.0,  -41.3,  -41.6,  -42.0,  -41.8,    1.2,  -20.7,    1.7,    1.1,    0.8,    0.8,   -0.1,    0.5,    7.4,    0.9,    0.5,   40.8,   19.1,    0.4,   41.9,   21.0,   23.6,   39.4,   21.1,   21.4,  999.0
2000/11/09 14:50,  999.0,   -2.9,    1.1,    1.1,   -2.1,    6.0,    5.9,  999.0,   -9.7,   -7.7,   -2.9,   -4.6,   -4.3,   -3.5,   -6.3,  -11.9,  999.0,  -19.0,  -21.3,  -25.1,  999.0,  999.0,  999.0,  -40.7,  999.0,  -31.9,  -42.5,  999.0,  999.0,  -41.5,  -41.6,  -41.8,  999.0,  999.0,  -20.6,  -41.2,  -15.8,  -38.8,    1.3,  999.0,    0.9,  999.0,  -10.2,    0.6,    0.8,    1.0,    0.9,    0.2,    0.4,  999.0,    1.4,   14.8,   38.4,    9.6,    0.8,   11.4,    4.2,  999.0
2000/11/09 15:00,  999.0,    0.0,   -0.1,    0.5,   -0.1,    0.0,   -0.6,   -1.9,   -5.5,  999.0,  -13.1,  999.0,  999.0,  999.0,   20.4,  999.0,   24.6,   27.0,   15.8,   14.9,   13.0,  999.0,  999.0,   -3.8,    7.2,  -33.2,  999.0,  -15.6,  999.0,  999.0,  -18.8,    0.1,  -38.4,  -40.6,  999.0,  -21.2,  -35.2,  -31.5,  -25.5,  -41.8,  999.0,  999.0,   31.2,  -42.6,    0.0,   33.9,   -7.1,   -2.1,   15.4,    4.1,   24.8,    4.8,   41.5,   15.6,   14.7,   20.6,   27.8,    7.6
2000/11/09 15:10,  999.0,   -0.3,   -0.6,    0.2,   -0.1,   -0.3,   -0.7,   -0.4,   -0.2,  999.0,    0.6,  999.0,  999.0,  999.0,  999.0,  999.0,  999.0,  -16.1,  999.0,  999.0,  999.0,  999.0,  999.0,  -36.7,  -41.3,  -41.6,  -41.0,  999.0,  999.0,  -20.5,    1.3,  -19.8,  -41.8,  -20.5,  -41.7,  -20.3,  -20.3,  999.0,  -20.5,  -20.9,    1.5,  999.0,  -17.7,    8.8,   10.9,   14.0,   16.3,   17.0,   11.0,   15.3,   25.5,   14.5,   31.3,   23.3,    0.4,  999.0,   41.8,   28.1
2000/11/09 15:20,  999.0,   -0.2,   -0.1,   -0.2,    0.1,   -1.4,    0.4,   -0.3,   -0.1,    2.9,  999.0,  999.0,  999.0,  999.0,  999.0,  999.0,  999.0,  999.0,  999.0,  999.0,  999.0,  999.0,  999.0,  999.0,  999.0,    6.5,    5.5,  999.0,  999.0,    1.7,    0.7,  999.0,    0.3,    0.9,    0.7,    1.0,    0.8,    0.8,    1.1,    1.0,  999.0,    1.7,    1.7,    5.2,    7.2,    9.9,   11.3,   11.8,   15.2,   17.3,   19.6,   19.9,   22.8,   24.8,   26.6,   32.0,   32.0,   33.2
2000/11/09 15:30,  999.0,    1.0,  999.0,  999.0,  999.0,  999.0,  999.0,  999.0,  999.0,  999.0,  999.0,    0.1,  999.0,  999.0,   21.3,   24.4,   30.3,  999.0,   38.8,  999.0,  999.0,  999.0,    7.5,  999.0,  999.0,    0.7,    1.0,    0.8,    0.2,    0.6,   12.7,   24.5,    2.1,    8.2,   18.4,    1.2,   13.9,    7.5,   14.6,    2.6,    4.7,    7.8,   21.5,   12.0,   14.1,   30.7,    5.8,   19.6,   41.6,   20.8,    1.0,   33.0,    0.3,    0.1,   17.6,   26.3,   21.1,   21.0
2000/11/09 15:40,  -21.1,  -10.6,   -9.6,   -8.3,   -6.6,   -0.5,   -0.6,  999.0,  999.0,  999.0,  999.0,  999.0,  -21.3,  -21.2,  999.0,  -21.4,  999.0,  -20.4,  999.0,   19.0,   17.3,  999.0,   -7.0,   -3.6,    1.6,   -5.7,    3.1,  -17.8,   -7.7,    0.5,  -20.0,    0.9,    1.1,    0.7,    6.9,    0.8,   13.2,   11.5,   14.3,  999.0,    3.7,   17.0,   17.8,   27.1,   19.4,   20.0,   21.0,   41.6,   22.0,    0.7,    0.6,   35.6,   24.5,   25.1,   25.6,   39.1,    1.0,   27.9
2000/11/09 15:50,  -18.7,  -15.1,  -11.0,   -6.6,   -2.7,   -0.5,    0.1,  999.0,  999.0,  999.0,  999.0,  999.0,    0.4,  999.0,  999.0,  999.0,  999.0,  999.0,  999.0,  999.0,   16.4,   10.4,   13.3,   12.0,   11.6,    6.2,    8.6,    7.2,    0.7,    4.1,    9.2,    4.2,   -0.2,    3.4,    2.5,    1.6,  999.0,    1.8,    4.3,    6.1,    7.9,   10.1,    8.4,   13.5,   13.3,   18.2,   19.6,   21.3,   21.9,   25.9,   27.3,   29.0,   33.0,   33.5,   34.9,   39.0,   37.8,   41.0
2000/11/09 16:00,  -15.9,   -9.4,   -9.8,   -2.5,   -2.1,   -0.3,    1.1,  999.0,  999.0,  999.0,  999.0,  999.0,  999.0,  999.0,  999.0,  999.0,  999.0,  999.0,   16.4,   14.9,   13.8,   12.2,   11.6,    9.8,    8.7,    7.0,    6.0,    5.8,    5.3,    4.7,  999.0,  999.0,    1.1,    0.7,    0.8,    0.4,    0.6,    0.4,    1.3,    1.3,    4.5,    6.4,    8.6,   11.1,   12.4,   16.1,   16.5,   18.4,   21.5,   23.6,   27.4,   28.0,   30.1,   33.1,   34.6,   37.5,   39.6,  999.0
2000/11/09 16:10,  -12.7,   -4.1,   -5.0,   -0.4,   -0.1,    2.1,    1.5,  999.0,  999.0,  999.0,  999.0,  999.0,  999.0,  999.0,  999.0,  999.0,  999.0,   17.3,   15.7,   12.6,    9.4,   12.0,    5.9,    4.9,    0.9,    5.6,    2.3,    2.1,    1.1,    0.9,  999.0,    0.6,    0.4,    0.5,    0.4,    0.6,    0.3,    0.8,    1.3,    1.4,  999.0,    1.5,    2.5,  999.0,    5.3,    8.5,  999.0,   16.4,   17.0,   20.6,   23.1,   26.3,   29.3,   29.8,   35.0,   41.9,   38.2,   41.4
2000/11/09 16:20,  999.0,  999.0,  999.0,  999.0,  999.0,  999.0,  999.0,  999.0,  999.0,  999.0,  999.0,  999.0,  999.0,  999.0,  999.0,  999.0,  999.0,  999.0,  999.0,    6.0,   -1.7,   -0.9,   -1.1,    8.6,    6.2,    4.5,    3.5,    2.0,    0.6,    0.8,    0.4,    0.4,    1.0,    0.9,    0.6,    1.2,    0.6,    1.3,    0.6,    1.6,    2.4,    6.1,  999.0,  999.0,  999.0,  999.0,  999.0,   -2.1,   -2.3,   -2.1,  999.0,   -0.9,    0.0,  999.0,   -0.5,  999.0,   33.4,   34.1
2000/11/09 16:30,  999.0,    3.8,    2.4,    0.8,    0.6,    1.7,    2.4,    1.7,    1.8,    1.2,    1.4,    0.6,    0.2,    0.6,    0.1,   -1.4,   -2.2,   -2.9,  999.0,   -2.5,   -3.1,   -2.9,   -2.3,   -2.5,   -1.6,   -2.7,   -2.4,   -2.8,   -3.9,   -2.9,   -2.8,   -3.4,   -3.6,   -4.4,   -6.6,   -6.5,  999.0,  999.0,  999.0,  999.0,    0.8,  999.0,    3.3,    1.0,    1.4,    1.4,    0.2,   -0.1,   -1.1,   -2.3,   -2.6,   -1.8,   -1.8,   -1.9,    0.5,  999.0,  999.0,   -0.6
2000/11/09 16:40,  999.0,  999.0,    2.3,    1.5,    1.1,    1.3,    3.0,    2.3,    1.7,    1.4,    1.2,    1.1,    0.8,    0.6,    0.7,    1.3,  999.0,  999.0,  999.0,  999.0,  999.0,  999.0,  999.0,  999.0,   -3.5,  999.0,   -3.7,   -0.9,    0.2,   -0.6,   -0.5,   -0.4,   -1.4,   -3.3,   -1.5,  999.0,  999.0,  999.0,  999.0,  999.0,  999.0,  999.0,    1.1,   -0.0,   -0.5,   -0.7,   -0.2,   -0.7,    0.0,    0.6,   -0.9,   -0.7,  999.0,  999.0,  999.0,  999.0,  -10.2,   -5.5
2000/11/09 16:50,  999.0,  999.0,   -0.3,    0.3,    0.8,    2.3,    3.8,    2.5,    1.9,    2.1,    1.9,    1.3,    1.0,    2.8,    2.1,    1.9,    0.6,    0.6,   -0.6,    0.3,   -0.3,  999.0,   -0.9,   -0.8,   -1.0,   -1.1,   -0.4,   -1.1,   -0.7,   -1.1,   -0.4,   -0.4,   -0.8,   -0.9,   -0.6,   -0.5,   -0.8,   -1.0,   -0.8,   -0.9,   -0.8,   -1.0,   -0.7,   -1.2,   -1.5,   -0.5,   -0.4,   -0.8,    0.1,   -0.3,   -0.4,   -0.6,   -0.8,   -0.3,   -0.7,   -0.6,   -0.5,   -1.5
2000/11/09 17:00,  999.0,  999.0,    2.3,    5.1,    4.3,    3.1,    4.4,    3.8,    6.8,    6.9,    8.2,    4.6,    2.4,    1.4,   -0.6,   -2.7,   -4.7,   -6.4,   -5.5,   -0.8,   -0.7,   -0.9,   -1.7,   -0.6,   -0.9,   -0.9,   -0.7,   -0.0,   -0.7,   -1.3,   -0.8,   -9.2,  -38.5,   -0.6,   -0.8,   -0.9,   -0.9,   -0.7,   -0.6,   -0.8,  999.0,   -0.5,  -10.3,   -0.9,  -12.1,   -8.0,   -4.9,   -0.5,   -0.6,   -0.4,   -1.2,   -0.2,   -0.7,   -0.9,   -1.2,    1.0,   -0.3,   -0.6
2000/11/09 17:10,  999.0,  999.0,  999.0,  999.0,  999.0,  999.0,  999.0,  999.0,  999.0,   -1.1,  999.0,   -9.4,   -7.4,   31.2,   -3.4,   -1.7,   -0.7,   -0.7,   -1.1,   -0.9,   -0.5,   -0.7,  999.0,    0.0,   41.6,   20.8,   -0.9,    6.2,   -0.6,   -0.9,   -0.9,  999.0,   -0.4,   -0.4,   -0.6,   -0.9,   -0.7,   -0.7,   -1.3,  999.0,   -0.8,   -0.9,   -0.9,   -0.6,   -1.0,   -0.7,   -0.7,   -0.5,   -0.7,   -0.7,   -0.7,   -0.6,   -0.7,   -1.1,   -0.9,   -0.6,   -0.9,   -0.9
2000/11/09 17:20,   -3.7,  999.0,  999.0,   -1.0,  999.0,  999.0,  999.0,    8.8,    9.5,    7.7,   10.5,    7.7,    9.3,  999.0,   15.3,  999.0,  999.0,   10.3,  999.0,    9.7,  999.0,  999.0,  999.0,  999.0,  999.0,  999.0,  999.0,  999.0,  999.0,  999.0,   -1.0,   -1.5,   -0.9,   -0.9,   -0.9,   -0.8,   -0.8,   -0.6,   -1.1,  999.0,   -0.6,   -0.5,  999.0,   -1.1,   -1.1,   -1.3,   -0.9,   -1.1,   -0.1,  999.0,   -0.9,   -0.9,   -0.7,   -0.6,   -0.6,   -0.1,   -0.8,   -0.3
2000/11/09 17:30,   -3.7,  999.0,  999.0,   -7.4,    0.0,   -8.8,  -18.6,    9.6,    1.5,   11.1,   11.7,   11.7,  999.0,  -11.2,  999.0,  999.0,  999.0,   -1.0,  999.0,   -0.6,  999.0,   -0.6,  999.0,  999.0,   -0.9,  999.0,   -0.5,   -0.3,   -0.6,   -0.7,   -0.7,   -0.3,    0.6,   -0.6,   -0.7,   -0.2,   -0.6,   -1.2,   -0.9,   -1.1,   -0.7,   -0.6,  999.0,  -11.0,   -0.6,   -0.6,   -0.5,   -1.1,   -0.6,  999.0,   -1.0,  999.0,   -0.9,   -1.0,   -0.8,   -0.9,   -0.8,   -0.5
2000/11/09 17:40,   -0.7,  999.0,  999.0,  999.0,   -0.1,  999.0,   -0.9,  999.0,   -0.8,  999.0,   -0.7,  999.0,   -1.3,  999.0,   -0.9,  999.0,  999.0,  999.0,   -1.1,   -0.3,  999.0,  999.0,   -0.6,   -0.5,  999.0,  999.0,  999.0,   -0.8,   -0.9,  999.0,  999.0,   -1.1,  999.0,   -1.4,  999.0,  999.0,   -0.4,   -0.9,  999.0,   -0.6,   -0.8,  999.0,   -0.2,   -0.5,  999.0,  999.0,  999.0,  999.0,   -0.8,   -0.7,   -0.9,   -0.6,  999.0,  999.0,  999.0,   -0.5,  999.0,  999.0
2000/11/09 17:50,   -0.7,  999.0,   -1.4,   -1.5,   -0.9,   -0.7,   -1.2,   -0.6,  999.0,  999.0,  999.0,  999.0,  999.0,  999.0,    0.2,   -0.6,   -0.9,   -1.3,   -0.5,    0.2,   -0.3,   -0.6,   -0.5,   -0.7,   -0.8,   -1.2,   -0.3,   -1.4,   -0.5,    0.1,   -1.0,   -1.4,   -1.1,   -0.5,   -0.5,   -0.9,   -0.8,   -0.6,   -1.0,  999.0,   -0.8,   -1.0,   -0.4,   -0.3,    0.1,   -0.4,   -1.1,   -1.1,   -0.4,   -1.0,   -0.4,   -0.2,  999.0,   -0.7,  999.0,   -0.1,   -0.2,   -0.9
2000/11/09 18:00,  999.0,  999.0,  999.0,   -0.7,  999.0,  999.0,   -0.6,  999.0,   -0.6,   -0.1,   -1.0,  999.0,   -0.4,  -11.3,  -11.5,  999.0,  999.0,   -1.0,   -1.1,  999.0,   -0.8,   -1.6,   -0.9,  999.0,   -1.3,  999.0,  999.0,  999.0,   -0.7,  999.0,   -0.3,   -0.9,   -1.7,   -1.7,   -1.3,   -1.0,  999.0,   -1.9,  999.0,   -1.1,  999.0,   -1.3,  999.0,  999.0,  999.0,   -0.7,   -0.5,  999.0,  999.0,  999.0,   -0.8,   -0.5,   -1.1,   -1.0,  999.0,  999.0,   -0.4,  999.0
2000/11/09 18:10,  999.0,  999.0,  999.0,  999.0,  999.0,  999.0,   -0.9,  999.0,  999.0,  999.0,  999.0,  999.0,  999.0,   -8.8,  999.0,  999.0,  999.0,  999.0,  999.0,  999.0,  999.0,  999.0,  999.0,  999.0,  999.0,  999.0,  999.0,  999.0,  999.0,  999.0,  999.0,  999.0,  999.0,  999.0,  999.0,  999.0,  999.0,  999.0,  999.0,  999.0,  999.0,  999.0,  999.0,  999.0,  999.0,  999.0,  999.0,  999.0,  999.0,  999.0,  999.0,  999.0,  999.0,  999.0,  999.0,  999.0,  999.0,  999.0
2000/11/09 18:20,  999.0,  999.0,   -5.3,  999.0,  999.0,   -0.4,  999.0,  999.0,  999.0,  999.0,  999.0,  999.0,  999.0,  999.0,  999.0,  999.0,  999.0,  999.0,  999.0,  999.0,   -8.5,  999.0,  -11.9,  999.0,  999.0,  999.0,  999.0,  999.0,  999.0,  999.0,  999.0,  999.0,  999.0,  999.0,  999.0,  999.0,  999.0,  999.0,  999.0,  999.0,  999.0,  999.0,  999.0,  999.0,  999.0,  999.0,  999.0,  999.0,  999.0,  999.0,  999.0,  999.0,  999.0,  999.0,  999.0,  999.0,  999.0,  999.0
2000/11/09 18:30,  999.0,  999.0,  999.0,  999.0,  999.0,    2.3,  -11.2,  999.0,  999.0,  999.0,  999.0,  999.0,  999.0,   -0.2,  999.0,  999.0,  999.0,  999.0,   -3.8,  999.0,  999.0,  999.0,  999.0,  999.0,  999.0,  999.0,  999.0,  999.0,  999.0,  999.0,  999.0,  999.0,  999.0,  999.0,  999.0,  999.0,  999.0,  999.0,  999.0,  999.0,  999.0,  999.0,  999.0,  999.0,  999.0,  999.0,  999.0,  999.0,  999.0,  999.0,  999.0,  999.0,  999.0,  999.0,  999.0,  999.0,  999.0,  999.0
2000/11/09 18:40,  999.0,  999.0,  999.0,  999.0,  999.0,  999.0,   -6.6,  999.0,   -5.3,  999.0,  999.0,   -0.0,   -6.1,   -6.9,  999.0,   -1.8,    3.6,  999.0,   -1.7,   -3.5,   -5.3,  999.0,  999.0,   -0.0,  999.0,  999.0,    6.8,  999.0,  999.0,  999.0,  999.0,  999.0,  999.0,  999.0,  999.0,  999.0,  999.0,  999.0,  999.0,  999.0,  999.0,  999.0,  999.0,  999.0,  999.0,  999.0,  999.0,  999.0,  999.0,  999.0,  999.0,  999.0,  999.0,  999.0,  999.0,  999.0,  999.0,  999.0
2000/11/09 18:50,  999.0,  999.0,  999.0,  999.0,  999.0,  999.0,   -3.3,    1.2,    5.5,    0.9,    3.7,    1.1,    2.0,  999.0,    0.6,  999.0,    3.7,  999.0,   -5.8,   -1.1,    0.2,    2.1,    1.0,   -2.4,  999.0,  999.0,  999.0,  999.0,    6.8,    8.5,  999.0,  999.0,  999.0,  999.0,  999.0,  999.0,  999.0,  999.0,  999.0,  999.0,  999.0,  999.0,  999.0,  999.0,  999.0,  999.0,  999.0,  999.0,  999.0,  999.0,  999.0,  999.0,  999.0,  999.0,  999.0,  999.0,  999.0,  999.0
2000/11/09 19:00,  999.0,    0.2,   -1.1,   -3.7,   -1.0,   -2.6,   -2.7,    1.3,    2.5,    1.0,    1.6,   -1.0,    0.9,    4.2,  999.0,    1.3,    0.3,    1.1,   -0.9,   -3.7,   -2.8,   -5.1,   -1.9,    0.1,    4.3,  999.0,    6.7,  999.0,  999.0,  999.0,  999.0,  999.0,  999.0,  999.0,  999.0,  999.0,  999.0,  999.0,  999.0,  999.0,  999.0,  999.0,  999.0,  999.0,  999.0,  999.0,  999.0,  999.0,  999.0,  999.0,  999.0,  999.0,  999.0,  999.0,  999.0,  999.0,  999.0,  999.0
2000/11/09 19:10,  999.0,   -2.7,  999.0,   -1.7,   -3.9,   -1.5,   -1.2,    0.8,    0.5,    1.8,  999.0,    0.8,    0.1,    7.7,  999.0,  999.0,    2.3,    1.1,    1.9,    2.3,    1.2,    5.4,    7.0,    3.4,    1.5,   -2.3,    5.0,  999.0,  999.0,  999.0,  999.0,  999.0,  999.0,  999.0,  999.0,  999.0,  999.0,  999.0,  999.0,  999.0,  999.0,  999.0,  999.0,  999.0,  999.0,  999.0,  999.0,  999.0,  999.0,  999.0,  999.0,  999.0,  999.0,  999.0,  999.0,  999.0,   26.2,  999.0
2000/11/09 19:20,  999.0,  999.0,  999.0,   -2.0,   -4.7,   -3.8,   -6.2,    0.5,    4.7,  999.0,    3.2,    0.6,    1.7,    0.5,    0.1,   -2.0,  999.0,  999.0,  999.0,   -2.1,    0.7,   -0.9,   -2.3,   -0.2,    3.8,   -4.0,    1.8,    4.0,    3.6,  999.0,  999.0,  999.0,  999.0,  999.0,  999.0,  999.0,  999.0,  999.0,  999.0,  999.0,  999.0,  999.0,  999.0,   22.4,  999.0,  999.0,  999.0,  999.0,  999.0,  999.0,  999.0,  999.0,  999.0,  999.0,  999.0,  999.0,  999.0,   26.0
2000/11/09 19:30,  999.0,    0.4,   -5.5,   -2.8,    0.6,  999.0,   -3.5,   -0.4,   -1.7,    0.9,    4.4,  999.0,    1.6,    3.9,    6.3,  999.0,  999.0,  999.0,  999.0,   -1.4,    0.2,   -0.7,   11.0,  999.0,  999.0,  999.0,    7.1,   11.4,  999.0,  999.0,  999.0,  999.0,  999.0,  999.0,  999.0,  999.0,  999.0,  999.0,  999.0,  999.0,  999.0,  999.0,  999.0,  999.0,  999.0,  999.0,  999.0,  999.0,  999.0,  999.0,  999.0,  999.0,  999.0,  999.0,  999.0,  999.0,  999.0,  999.0
2000/11/09 19:40,  999.0,  999.0,   -1.4,   -7.4,   -2.8,   -2.6,  999.0,  999.0,    3.3,    2.9,    2.4,  999.0,  999.0,   -4.8,    3.4,  999.0,  999.0,    2.1,    2.2,  999.0,   -2.2,  999.0,   -2.2,    8.4,    2.1,  999.0,  999.0,    9.7,   11.8,  999.0,  999.0,  999.0,  999.0,  999.0,  999.0,  999.0,  999.0,  999.0,  999.0,  999.0,  999.0,  999.0,  999.0,  999.0,  999.0,  999.0,  999.0,  999.0,  999.0,  999.0,  999.0,  999.0,  999.0,  999.0,  999.0,  999.0,  999.0,  999.0
2000/11/09 19:50,  999.0,   -0.2,   -2.6,    1.7,  999.0,   -0.9,   -2.4,   -9.6,  999.0,    3.1,    2.6,   -0.2,    0.2,    1.7,    3.8,   -2.7,   -3.0,    1.6,  999.0,  999.0,  999.0,   -4.2,  999.0,  999.0,  999.0,  999.0,  999.0,  999.0,  999.0,  999.0,  999.0,  999.0,  999.0,  999.0,  999.0,  999.0,  999.0,  999.0,  999.0,  999.0,  999.0,  999.0,  999.0,  999.0,  999.0,  999.0,  999.0,  999.0,  999.0,  999.0,  999.0,  999.0,  999.0,  999.0,  999.0,  999.0,  999.0,  999.0
2000/11/09 20:00,  999.0,  999.0,  999.0,   -1.8,   -1.4,    1.2,   -0.8,    0.9,  999.0,   -0.8,   -0.9,   -0.5,    3.3,  999.0,  999.0,   -1.7,   -0.4,  999.0,  999.0,   -0.8,  999.0,  999.0,  999.0,  999.0,  999.0,  999.0,  999.0,  999.0,  999.0,  999.0,  999.0,  999.0,  999.0,  999.0,  999.0,  999.0,  999.0,  999.0,  999.0,  999.0,  999.0,  999.0,  999.0,  999.0,  999.0,  999.0,  999.0,  999.0,  999.0,  999.0,  999.0,  999.0,  999.0,  999.0,  999.0,  999.0,  999.0,  999.0
2000/11/09 20:10,  999.0,   -2.7,    1.4,    8.6,    0.9,    4.4,    0.5,    1.5,    1.6,    6.3,    3.5,    4.2,  999.0,  999.0,  999.0,    1.1,    1.7,  999.0,  999.0,  999.0,  999.0,  999.0,  999.0,  999.0,  999.0,  999.0,  999.0,  999.0,  999.0,  999.0,  999.0,  999.0,  999.0,  999.0,  999.0,  999.0,  999.0,  999.0,  999.0,  999.0,  999.0,  999.0,  999.0,  999.0,  999.0,  999.0,  999.0,  999.0,  999.0,  999.0,  999.0,  999.0,  999.0,  999.0,  999.0,  999.0,  999.0,  999.0
2000/11/09 20:20,  999.0,  999.0,    2.4,    3.5,   -1.4,  999.0,   -3.7,    1.5,    4.6,   10.6,  999.0,    5.5,   10.9,    3.2,    3.1,  999.0,  999.0,  999.0,  999.0,  999.0,    0.2,  999.0,  999.0,   -0.6,  999.0,  999.0,  999.0,  999.0,  999.0,  999.0,  999.0,  999.0,  999.0,  999.0,  999.0,  999.0,  999.0,  999.0,  999.0,  999.0,  999.0,  999.0,  999.0,  999.0,  999.0,  999.0,  999.0,  999.0,  999.0,  999.0,  999.0,  999.0,  999.0,  999.0,  999.0,  999.0,  999.0,  999.0
2000/11/09 20:30,  999.0,    0.4,    4.5,   -1.2,  999.0,  999.0,   -2.2,   -3.7,  999.0,  999.0,  999.0,   -5.2,  999.0,  999.0,  999.0,  999.0,   -2.1,    0.4,    0.9,  999.0,  999.0,  999.0,  999.0,  999.0,  999.0,  999.0,  999.0,  999.0,  999.0,  999.0,  999.0,  999.0,  999.0,  999.0,  999.0,  999.0,  999.0,  999.0,  999.0,  999.0,  999.0,  999.0,  999.0,  999.0,  999.0,  999.0,  999.0,  999.0,  999.0,  999.0,  999.0,  999.0,  999.0,  999.0,  999.0,  999.0,  999.0,  999.0
2000/11/09 20:40,  999.0,  999.0,   -0.8,  999.0,   -5.1,    6.6,  999.0,    1.2,    1.0,    1.2,  999.0,  999.0,  999.0,  999.0,   -1.9,  999.0,   -3.6,  999.0,  999.0,  999.0,  999.0,  999.0,  999.0,  999.0,  999.0,  999.0,  999.0,  999.0,  999.0,  999.0,  999.0,  999.0,  999.0,  999.0,  999.0,   -4.8,  999.0,  999.0,  999.0,  999.0,  999.0,  999.0,  999.0,  999.0,  999.0,  999.0,  999.0,  999.0,  999.0,  999.0,  999.0,  999.0,  999.0,  999.0,  999.0,  999.0,  999.0,  999.0
2000/11/09 20:50,  999.0,  999.0,    1.4,   -0.3,   -0.8,  999.0,   -2.2,   -8.8,  999.0,    0.0,    1.9,    5.3,  999.0,  999.0,    1.8,  -14.6,  999.0,   -5.2,   -5.3,  999.0,   -1.4,   -1.6,  999.0,  999.0,   15.4,  999.0,  999.0,  999.0,  999.0,  999.0,  999.0,  999.0,  999.0,  999.0,  999.0,   -2.9,   18.1,  999.0,  999.0,  999.0,  999.0,  999.0,  999.0,  999.0,   -1.0,  999.0,  999.0,  999.0,  999.0,   -0.8,  999.0,  999.0,   -0.5,   -0.5,  999.0,  999.0,  999.0,   -1.1
2000/11/09 21:00,  999.0,  999.0,  999.0,  999.0,   -4.6,   -1.3,   -3.6,    0.0,  999.0,    1.8,  999.0,    0.5,   -0.7,    3.3,  999.0,  999.0,  999.0,  999.0,  999.0,  999.0,  999.0,  999.0,  999.0,  999.0,    0.5,   -3.6,  999.0,  999.0,  999.0,   12.2,  999.0,  999.0,  999.0,  999.0,  999.0,   -4.3,  999.0,  999.0,   -0.8,  999.0,  999.0,   -0.6,  999.0,  999.0,  999.0,   -1.2,  999.0,  999.0,   -0.5,  999.0,   -1.1,  999.0,   -0.8,   -0.4,  999.0,   -0.6,   -0.3,   -0.6
2000/11/09 21:10,  999.0,  999.0,   -7.7,   -3.2,  999.0,   -0.7,    1.3,   -0.9,  999.0,    3.6,    1.5,   -0.4,   -1.0,    0.9,  999.0,  999.0,  999.0,  999.0,  999.0,  999.0,  999.0,  999.0,  999.0,  999.0,    5.2,    5.6,  999.0,  999.0,  999.0,  999.0,  999.0,  999.0,  999.0,  999.0,  999.0,  999.0,   -1.6,  999.0,  999.0,   -0.3,   -0.5,   -0.8,   -1.0,   -1.2,   -0.3,   -1.2,   -0.9,   -0.9,   -0.8,   -0.3,   -0.4,   -1.4,  999.0,   -0.8,   -0.2,   -0.3,   -0.6,  999.0
2000/11/09 21:20,  999.0,  999.0,    2.0,  999.0,  999.0,    0.9,    1.4,   -4.9,   -3.8,    2.4,   -0.5,   -0.8,   -1.6,   -0.9,   -0.7,   -3.0,  999.0,  999.0,  999.0,   -4.0,  999.0,  999.0,  999.0,  999.0,  999.0,  999.0,  999.0,  999.0,  999.0,  999.0,  999.0,  999.0,  999.0,  999.0,  999.0,  999.0,   -1.1,  999.0,  999.0,   -0.4,   -1.0,   -0.7,   -0.6,   -0.9,   -0.6,  999.0,   -0.3,   -0.7,   -0.4,   -0.6,  999.0,   -1.0,   -1.3,   -0.7,   -1.0,   -0.8,   -0.6,   -0.9
2000/11/09 21:30,  999.0,  999.0,  999.0,    0.9,    0.7,    2.1,  999.0,    1.3,   -3.5,   -4.1,  999.0,   -3.0,   -2.7,   -4.0,  999.0,  999.0,   -2.3,   -2.7,   -1.2,   -2.1,  999.0,  999.0,  999.0,  999.0,  999.0,    4.0,  999.0,  999.0,  999.0,  999.0,  999.0,  999.0,  999.0,  999.0,  999.0,  999.0,   -0.8,   -1.4,   -0.9,  999.0,   -1.1,  999.0,   -1.3,   -0.7,  999.0,   -0.7,   -1.0,   -0.6,   -1.1,   -1.1,   -0.5,   -1.7,   -0.7,   -1.0,   -1.4,   -1.2,   -1.5,   -0.6
2000/11/09 21:40,  999.0,  999.0,  999.0,    0.6,    0.8,    1.8,    3.9,    3.3,   -1.6,   -3.5,   -1.7,   -3.0,   -1.6,   -2.0,   -2.9,   -1.6,   -1.8,  999.0,    3.9,    4.4,  999.0,    1.3,  999.0,    0.5,    1.0,  999.0,  999.0,  999.0,  999.0,  999.0,  999.0,   -4.8,   -0.6,   -1.4,   -0.8,   -0.9,   -0.3,   -1.1,   -0.8,   -0.7,   -0.5,   -0.8,   -1.4,   -0.7,  999.0,   -0.4,   -0.8,   -0.9,   -1.0,   -0.7,   -0.6,   -0.6,   -0.4,   -0.9,   -0.3,   -0.5,   -0.6,   -0.3
2000/11/09 21:50,  999.0,    0.6,   -1.3,   -0.7,   -0.3,    0.9,   -0.6,    0.1,    2.4,   -3.4,    0.1,  999.0,  999.0,   -1.3,   -2.0,   -3.6,   -3.4,   -3.5,  999.0,  999.0,  999.0,   -1.1,   -0.4,  999.0,  999.0,  999.0,   -8.2,  999.0,  999.0,  999.0,   -7.7,   -6.9,   -5.8,   -4.6,   -3.2,   -1.7,   -1.3,   -1.2,  999.0,   -0.7,   -0.8,   -0.4,   -0.8,   -1.2,   -0.8,   -0.7,   -0.8,   -0.5,   -0.1,   -0.6,   -1.2,   -0.5,   -0.1,  999.0,   -0.5,   -0.7,   -0.4,   -0.8
2000/11/09 22:00,  999.0,  999.0,   -1.7,    1.7,    1.2,    1.4,  999.0,   -0.3,    2.2,  999.0,  999.0,  999.0,   -0.7,  999.0,  999.0,   -0.6,  999.0,  999.0,  999.0,  999.0,  999.0,  999.0,  999.0,  999.0,    8.7,    9.5,  999.0,  999.0,  999.0,  999.0,   -9.5,   -7.8,   -6.8,   -6.5,   -4.5,   -4.8,   -3.5,   -3.0,   -2.0,   -2.5,  999.0,   -0.9,   -0.6,   -0.5,   -0.9,   -0.2,   -1.1,   -1.1,  999.0,   -0.7,   -0.6,   -0.2,   -0.5,   -0.7,   -1.2,  999.0,   -0.5,  999.0
2000/11/09 22:10,  999.0,   -2.6,   -1.7,    0.4,    1.4,    3.3,  999.0,   -2.1,   -1.9,   -1.8,   -1.3,  999.0,   -2.0,   -6.4,  999.0,  999.0,  999.0,  999.0,  999.0,  999.0,  999.0,  999.0,   -4.2,  999.0,  999.0,  999.0,  999.0,  999.0,  -11.7,   -9.9,  -11.3,   -8.8,   -8.4,   -9.0,   -7.7,   -6.2,   -5.4,   -3.6,   -4.1,   -2.8,  999.0,   -0.6,   -1.9,  999.0,   -0.7,   -0.3,   -0.7,   -0.5,   -0.5,   -0.4,   -0.4,   -1.1,   -0.8,  999.0,   -1.3,   -0.7,   -0.6,  999.0
2000/11/09 22:20,  999.0,   -3.6,   -1.4,   -1.3,    1.0,  999.0,  999.0,  999.0,   -0.2,  999.0,   -0.9,  999.0,  999.0,  999.0,  999.0,  999.0,  999.0,   -9.9,  999.0,  999.0,  999.0,  999.0,  999.0,  999.0,  999.0,  999.0,  999.0,  999.0,  -10.8,   -9.5,   -9.6,   -8.1,  999.0,   -2.4,   -4.3,   -2.4,   -2.5,  999.0,   -0.9,   -0.8,   -1.1,   -1.0,   -0.4,  999.0,   -0.3,   -0.6,   -1.0,  999.0,   -1.5,   -0.8,   -0.3,  999.0,   -0.5,   -0.5,   -0.5,   -0.1,   -0.2,   -0.3
2000/11/09 22:30,  999.0,  999.0,  999.0,    0.6,   -1.1,    0.9,  999.0,   -1.3,   -2.1,   -1.4,  999.0,  999.0,  999.0,   -2.1,  -13.5,  999.0,  -17.6,  -14.1,  -13.5,  999.0,  -13.0,  -13.9,  -11.9,  -12.6,  -11.7,  -10.1,  -10.0,  999.0,  999.0,   -7.2,   -5.3,   -6.3,  999.0,   -4.2,   -2.4,   -2.3,   -2.1,   -1.3,   -0.5,   -1.1,   -0.6,   -0.7,   -0.0,   -0.0,   -0.8,  999.0,   -1.0,   -0.3,   -0.0,   -0.4,   -1.0,   -0.8,  999.0,   -0.9,   -0.6,   -0.5,   -0.2,  999.0
2000/11/09 22:40,  999.0,  999.0,   -0.5,   -0.5,    2.9,   -0.4,  999.0,   -2.1,  999.0,   -5.9,  999.0,  999.0,  999.0,  999.0,  999.0,  -17.0,  -16.1,  -13.6,  999.0,  999.0,  -13.1,  -12.4,  999.0,  -12.5,  999.0,  -11.6,  -11.2,   -7.7,   -8.7,   -7.9,   -9.2,   -4.6,   -4.9,   -4.3,   -3.0,   -2.9,   -1.0,  999.0,  999.0,   -1.4,  999.0,   -0.6,   -1.0,   -0.4,   -0.4,   -0.9,   -1.6,  999.0,  999.0,   -0.6,   -1.0,   -0.6,   -0.3,   -0.7,   -0.6,  999.0,   -0.0,   -0.4
2000/11/09 22:50,  999.0,   -2.5,   -1.8,   -0.7,   -1.2,   -1.5,   -2.7,   -2.0,   -0.2,  999.0,    0.2,  999.0,    0.5,  999.0,  -21.3,  -21.5,  -20.5,  -18.9,  -18.5,  999.0,  -15.9,  -14.0,  999.0,  -13.1,  999.0,  -11.6,  -10.8,   -9.9,   -7.0,   -5.4,    2.1,   -5.4,   -4.0,   -2.5,   -1.3,   -1.2,   -0.5,   -0.8,   -0.8,   -0.5,   -0.4,   -0.2,   -0.6,   -0.8,   -1.2,   -1.3,   -0.8,   -0.4,   -0.7,   -0.7,   -0.6,   -1.3,   -1.4,  999.0,  999.0,   -0.6,   -0.8,   -0.8
2000/11/09 23:00,  999.0,   -4.2,   -0.3,    0.4,   -1.0,   -0.3,   -2.6,   -3.1,   -4.0,   -1.4,   -6.1,  999.0,  999.0,  999.0,  999.0,  999.0,  -20.9,  -20.6,  -20.1,  -16.1,  999.0,  -17.1,  999.0,  -14.5,  -13.1,  -12.7,  -11.4,  -10.3,   -8.9,  999.0,   -4.8,  999.0,  999.0,  999.0,   -1.7,   -0.5,  999.0,   -0.7,  999.0,   -0.8,  999.0,   -0.5,   -0.9,   -0.9,  999.0,   -2.0,  999.0,   -0.6,   -1.1,   -1.0,   -1.3,   -0.9,   -0.4,   -1.0,   -1.2,   -0.9,   -0.8,   -0.9
2000/11/09 23:10,  999.0,  999.0,   -3.7,   -0.0,    0.0,    5.0,   -3.9,   -1.4,   -1.3,   -1.5,   -2.0,  999.0,  999.0,   -8.8,  999.0,  -20.7,  999.0,  999.0,  999.0,  -17.9,  999.0,  -15.2,  -14.8,  999.0,  999.0,  -11.6,  -10.3,   -9.4,   -8.1,   -6.8,   -5.0,   -4.5,  999.0,   -1.7,   -0.5,   -1.0,   -0.2,   -0.7,   -0.3,   -1.3,   -0.7,   -0.1,   -0.9,   -0.8,   -0.8,   -0.5,   -0.7,   -0.6,   -0.2,   -0.9,   -0.9,  999.0,  999.0,   -0.5,   -1.0,  999.0,   -1.1,   -0.9
2000/11/09 23:20,  999.0,  999.0,   -2.6,   -0.9,   -1.1,   -2.4,   -1.3,  999.0,  999.0,   -2.8,  999.0,  999.0,  999.0,  999.0,  -21.6,  -20.9,  999.0,  999.0,  -18.1,  -16.9,  -16.1,  -15.6,  -15.3,  -15.4,  -13.0,  999.0,  -11.1,   -9.5,  999.0,  999.0,   -7.0,   -3.4,   -6.8,   -3.8,  999.0,   -0.9,   -1.9,   -1.8,   -0.3,   -1.5,   -0.7,   -0.7,   -1.4,   -1.0,   -0.8,   -1.1,  999.0,   -0.0,    0.1,    0.1,   -0.1,   -0.4,   -1.0,   -0.8,   -0.1,   -0.9,   -0.4,   -0.4
2000/11/09 23:30,  999.0,  999.0,   -4.6,   -1.6,   -0.3,   -0.2,   -2.6,   -3.2,  999.0,  999.0,  999.0,  999.0,  999.0,  999.0,  999.0,  999.0,  -20.5,  -20.2,  -18.7,  999.0,  -17.3,  -16.8,  999.0,  -13.1,  -15.0,  999.0,  -11.1,   -9.9,   -7.8,   -7.8,  999.0,  999.0,   -5.1,   -5.9,   -4.6,   -0.3,   -0.9,   -2.4,   -0.8,   -0.1,   -0.7,  999.0,   -0.7,   -0.9,   -0.5,  999.0,   -1.4,   -1.4,   -0.7,  999.0,    0.1,   -0.5,   -0.9,   -0.2,   -0.4,   -0.1,   -0.3,   -0.6
2000/11/09 23:40,  999.0,   -4.2,   -3.3,   -1.7,   -1.0,   -0.0,   -2.3,  999.0,   -4.6,    1.5,  999.0,  999.0,  999.0,  999.0,  999.0,  999.0,  -21.3,  999.0,  -21.3,  -20.1,  -19.1,  -17.5,  999.0,  999.0,  -14.3,  -13.7,  -12.8,  -11.6,  -10.7,   -8.9,   -8.6,  999.0,   -6.3,   -5.6,   -4.8,   -2.5,   -3.7,   -2.1,   -1.2,  999.0,   -1.3,   -1.2,   -0.3,   -0.5,    0.3,   -0.6,   -0.5,   -0.6,   -0.7,   -0.9,   -0.9,   -1.4,    0.0,   -0.5,   -0.8,   -0.9,   -0.4,   -1.3
2000/11/09 23:50,  999.0,  999.0,   -3.9,    2.9,    1.2,   -0.6,  999.0,  999.0,   -5.4,   -0.1,   -0.8,  999.0,  999.0,  999.0,  999.0,  999.0,  -20.4,  -19.5,  -20.1,  -20.0,  -18.6,  -18.6,  -16.0,  -15.2,  -13.7,  -11.3,  -14.1,   -9.2,   -8.5,   -7.7,  999.0,  999.0,  999.0,  999.0,   -5.1,   -4.7,   -2.1,   -1.1,  999.0,  999.0,   -1.3,   -0.9,   -0.8,   -0.8,   -0.4,   -0.6,   -1.1,   -1.6,  999.0,  999.0,  999.0,   -0.7,   -1.2,  999.0,   -0.4,    0.1,  999.0,   -0.8
